DLH8P EDDM-KBOS

Flight info

Callsign DLH8P
Flight time 8h 0m
Altitude 36000
Route GIVMI1N/26R GIVMI Y101 INBED DCT REKDI DCT LOHRE DCT ADKUV DCT DENUT L610 KOPUL Q60 OKSAW DCT TEWXI DCT VATRY DCT DOGAL/M085F380 NATC ELSIR/N0481F380 DCT TUSKY DCT EURRO OOSHN5
Aircraft A388/J-SADE2E3FGHIJ3J4J5M1RWXY/LB1D1

Departure

Time 2026-05-07 13:39
Airport Munich Airport (EDDM)

Arrival

Time 2026-05-07 21:39
Airport Boston Logan International Airport (KBOS)
Time Latitude Longitude Altitude Speed Heading
2026-05-07 12:20 48.35244 11.80039 1468 ft 0 kts 264°
2026-05-07 13:17 48.35244 11.80040 1476 ft 2 kts 264°
2026-05-07 13:18 48.35246 11.80065 1464 ft 2 kts 263°
2026-05-07 13:18 48.35248 11.80090 1469 ft 2 kts 264°
2026-05-07 13:18 48.35250 11.80115 1464 ft 2 kts 264°
2026-05-07 13:18 48.35253 11.80140 1467 ft 2 kts 244°
2026-05-07 13:19 48.35266 11.80156 1464 ft 2 kts 211°
2026-05-07 13:19 48.35281 11.80165 1464 ft 2 kts 198°
2026-05-07 13:19 48.35298 11.80169 1464 ft 2 kts 183°
2026-05-07 13:19 48.35314 11.80168 1464 ft 2 kts 174°
2026-05-07 13:20 48.35318 11.80167 1464 ft 0 kts 174°
2026-05-07 13:25 48.35310 11.80168 1469 ft 3 kts 174°
2026-05-07 13:25 48.35288 11.80171 1476 ft 3 kts 174°
2026-05-07 13:25 48.35244 11.80178 1475 ft 10 kts 174°
2026-05-07 13:25 48.35170 11.80182 1469 ft 11 kts 191°
2026-05-07 13:26 48.35123 11.80115 1472 ft 9 kts 263°
2026-05-07 13:26 48.35124 11.80016 1468 ft 10 kts 270°
2026-05-07 13:26 48.35121 11.79904 1470 ft 11 kts 265°
2026-05-07 13:26 48.35113 11.79792 1466 ft 11 kts 262°
2026-05-07 13:27 48.35103 11.79682 1476 ft 11 kts 261°
2026-05-07 13:27 48.35097 11.79573 1466 ft 10 kts 282°
2026-05-07 13:27 48.35137 11.79509 1466 ft 8 kts 346°
2026-05-07 13:27 48.35197 11.79498 1467 ft 9 kts 354°
2026-05-07 13:28 48.35269 11.79488 1472 ft 11 kts 354°
2026-05-07 13:28 48.35352 11.79475 1474 ft 12 kts 356°
2026-05-07 13:28 48.35432 11.79498 1466 ft 12 kts 27°
2026-05-07 13:28 48.35509 11.79557 1466 ft 13 kts 17°
2026-05-07 13:29 48.35599 11.79565 1467 ft 13 kts 354°
2026-05-07 13:29 48.35689 11.79549 1464 ft 14 kts 353°
2026-05-07 13:29 48.35793 11.79531 1465 ft 15 kts 353°
2026-05-07 13:29 48.35892 11.79514 1471 ft 10 kts 353°
2026-05-07 13:30 48.35965 11.79501 1465 ft 11 kts 353°
2026-05-07 13:30 48.36040 11.79488 1470 ft 11 kts 353°
2026-05-07 13:30 48.36119 11.79474 1472 ft 11 kts 354°
2026-05-07 13:30 48.36172 11.79466 1465 ft 8 kts 359°
2026-05-07 13:31 48.36205 11.79485 1465 ft 5 kts 54°
2026-05-07 13:31 48.36221 11.79558 1469 ft 10 kts 81°
2026-05-07 13:31 48.36231 11.79680 1468 ft 14 kts 83°
2026-05-07 13:31 48.36243 11.79846 1473 ft 18 kts 84°
2026-05-07 13:32 48.36257 11.80050 1476 ft 21 kts 83°
2026-05-07 13:32 48.36275 11.80284 1466 ft 24 kts 83°
2026-05-07 13:32 48.36296 11.80539 1468 ft 25 kts 83°
2026-05-07 13:32 48.36316 11.80800 1470 ft 26 kts 84°
2026-05-07 13:33 48.36335 11.81074 1476 ft 26 kts 83°
2026-05-07 13:33 48.36355 11.81349 1468 ft 27 kts 84°
2026-05-07 13:33 48.36377 11.81632 1468 ft 27 kts 83°
2026-05-07 13:33 48.36396 11.81867 1469 ft 20 kts 89°
2026-05-07 13:34 48.36393 11.82083 1467 ft 21 kts 84°
2026-05-07 13:34 48.36444 11.82285 1467 ft 7 kts 18°
2026-05-07 13:34 48.36498 11.82293 1470 ft 9 kts 355°
2026-05-07 13:35 48.36559 11.82266 1463 ft 10 kts 328°
2026-05-07 13:35 48.36610 11.82188 1463 ft 12 kts 307°
2026-05-07 13:35 48.36659 11.82099 1459 ft 3 kts 315°
2026-05-07 13:35 48.36675 11.82071 1461 ft 3 kts 297°
2026-05-07 13:36 48.36682 11.82037 1461 ft 4 kts 274°
2026-05-07 13:36 48.36682 11.82009 1462 ft 0 kts 264°
2026-05-07 13:37 48.36676 11.81929 1465 ft 33 kts 263°
2026-05-07 13:38 48.36621 11.81192 1471 ft 104 kts 263°
2026-05-07 13:38 48.36515 11.79843 1464 ft 151 kts 263°
2026-05-07 13:38 48.36386 11.78121 1534 ft 173 kts 263°
2026-05-07 13:38 48.36234 11.76335 1972 ft 170 kts 265°
2026-05-07 13:39 48.36092 11.74556 2388 ft 173 kts 266°
2026-05-07 13:39 48.35986 11.72793 2889 ft 168 kts 267°
2026-05-07 13:39 48.35879 11.71039 3283 ft 174 kts 265°
2026-05-07 13:39 48.35759 11.69158 3403 ft 186 kts 271°
2026-05-07 13:40 48.36007 11.67174 3480 ft 199 kts 292°
2026-05-07 13:40 48.36744 11.65332 3607 ft 220 kts 302°
2026-05-07 13:40 48.37607 11.63332 4014 ft 237 kts 301°
2026-05-07 13:40 48.38507 11.61151 4536 ft 249 kts 300°
2026-05-07 13:41 48.39421 11.58898 5243 ft 255 kts 300°
2026-05-07 13:41 48.40341 11.56627 6049 ft 256 kts 300°
2026-05-07 13:41 48.41282 11.54305 6805 ft 259 kts 300°
2026-05-07 13:41 48.42226 11.51972 7582 ft 262 kts 300°
2026-05-07 13:42 48.43181 11.49614 8318 ft 266 kts 300°
2026-05-07 13:42 48.44402 11.47535 9019 ft 273 kts 323°
2026-05-07 13:42 48.46152 11.46355 9745 ft 281 kts 340°
2026-05-07 13:42 48.48061 11.45551 10321 ft 289 kts 342°
2026-05-07 13:43 48.50068 11.44764 10502 ft 309 kts 342°
2026-05-07 13:43 48.52209 11.43916 10683 ft 327 kts 342°
2026-05-07 13:43 48.54470 11.43000 11115 ft 335 kts 342°
2026-05-07 13:43 48.56703 11.42083 11734 ft 338 kts 342°
2026-05-07 13:44 48.58984 11.41138 12337 ft 341 kts 342°
2026-05-07 13:44 48.61277 11.40181 12949 ft 344 kts 342°
2026-05-07 13:44 48.63593 11.39213 13558 ft 347 kts 342°
2026-05-07 13:44 48.65941 11.38230 14123 ft 350 kts 342°
2026-05-07 13:45 48.68286 11.37223 14671 ft 351 kts 339°
2026-05-07 13:45 48.70543 11.35825 15218 ft 351 kts 330°
2026-05-07 13:45 48.72653 11.33947 15749 ft 352 kts 323°
2026-05-07 13:45 48.74685 11.31841 16273 ft 354 kts 323°
2026-05-07 13:46 48.76742 11.29753 16796 ft 357 kts 324°
2026-05-07 13:46 48.78814 11.27664 17297 ft 359 kts 324°
2026-05-07 13:46 48.80902 11.25555 17841 ft 362 kts 324°
2026-05-07 13:46 48.83010 11.23440 18322 ft 365 kts 326°
2026-05-07 13:47 48.85275 11.21634 18785 ft 369 kts 334°
2026-05-07 13:47 48.87698 11.20289 19236 ft 373 kts 340°
2026-05-07 13:47 48.90141 11.19087 19734 ft 375 kts 339°
2026-05-07 13:47 48.92632 11.17824 20181 ft 378 kts 339°
2026-05-07 13:48 48.95163 11.16530 20646 ft 380 kts 339°
2026-05-07 13:48 48.97646 11.15261 21050 ft 382 kts 339°
2026-05-07 13:48 49.00170 11.13974 21459 ft 384 kts 339°
2026-05-07 13:48 49.02718 11.12675 21875 ft 386 kts 339°
2026-05-07 13:49 49.05278 11.11369 22288 ft 388 kts 339°
2026-05-07 13:49 49.07848 11.10057 22676 ft 391 kts 339°
2026-05-07 13:49 49.10421 11.08742 23095 ft 393 kts 339°
2026-05-07 13:49 49.13022 11.07413 23493 ft 395 kts 339°
2026-05-07 13:50 49.15642 11.06076 23837 ft 397 kts 339°
2026-05-07 13:50 49.18273 11.04733 24198 ft 399 kts 339°
2026-05-07 13:50 49.20903 11.03387 24553 ft 400 kts 339°
2026-05-07 13:50 49.23550 11.02025 24902 ft 402 kts 339°
2026-05-07 13:51 49.26180 11.00670 25259 ft 404 kts 339°
2026-05-07 13:51 49.28853 10.99290 25625 ft 406 kts 340°
2026-05-07 13:51 49.31532 10.97906 26006 ft 408 kts 340°
2026-05-07 13:51 49.34231 10.96510 26392 ft 410 kts 340°
2026-05-07 13:52 49.36880 10.94845 26738 ft 411 kts 330°
2026-05-07 13:52 49.39271 10.92423 27127 ft 413 kts 320°
2026-05-07 13:52 49.40673 10.90453 27366 ft 414 kts 313°
2026-05-07 13:52 49.43118 10.85902 27879 ft 418 kts 309°
2026-05-07 13:53 49.44349 10.83557 28119 ft 420 kts 309°
2026-05-07 13:53 49.46803 10.78921 28655 ft 423 kts 309°
2026-05-07 13:53 49.48060 10.76546 28917 ft 425 kts 309°
2026-05-07 13:53 49.49928 10.73007 29297 ft 428 kts 309°
2026-05-07 13:54 49.51814 10.69425 29695 ft 431 kts 309°
2026-05-07 13:54 49.53711 10.65813 30064 ft 435 kts 309°
2026-05-07 13:54 49.55594 10.62220 30386 ft 438 kts 309°
2026-05-07 13:54 49.57512 10.58557 30705 ft 441 kts 309°
2026-05-07 13:55 49.59448 10.54854 31054 ft 444 kts 309°
2026-05-07 13:55 49.61389 10.51134 31381 ft 447 kts 309°
2026-05-07 13:55 49.63343 10.47386 31709 ft 450 kts 308°
2026-05-07 13:55 49.65306 10.43599 32026 ft 452 kts 307°
2026-05-07 13:56 49.67108 10.39609 32313 ft 456 kts 303°
2026-05-07 13:56 49.68895 10.35538 32651 ft 458 kts 304°
2026-05-07 13:56 49.70697 10.31463 32955 ft 462 kts 304°
2026-05-07 13:56 49.72519 10.27346 33267 ft 465 kts 303°
2026-05-07 13:57 49.74352 10.23193 33582 ft 468 kts 303°
2026-05-07 13:57 49.76163 10.19078 33898 ft 470 kts 303°
2026-05-07 13:57 49.78007 10.14880 34168 ft 473 kts 303°
2026-05-07 13:57 49.79861 10.10650 34429 ft 476 kts 303°
2026-05-07 13:58 49.81721 10.06400 34705 ft 478 kts 303°
2026-05-07 13:58 49.83591 10.02121 35045 ft 479 kts 303°
2026-05-07 13:58 49.85461 9.97833 35392 ft 479 kts 303°
2026-05-07 13:58 49.87327 9.93549 35744 ft 479 kts 303°
2026-05-07 13:59 49.89189 9.89267 36110 ft 479 kts 303°
2026-05-07 13:59 49.91054 9.84972 36467 ft 479 kts 302°
2026-05-07 13:59 49.92918 9.80671 36790 ft 480 kts 302°
2026-05-07 13:59 49.94779 9.76368 37140 ft 480 kts 302°
2026-05-07 14:00 49.96638 9.72065 37490 ft 480 kts 302°
2026-05-07 14:00 49.98500 9.67747 37844 ft 480 kts 302°
2026-05-07 14:00 50.00361 9.63425 38047 ft 483 kts 302°
2026-05-07 14:01 50.04039 9.54704 38022 ft 482 kts 298°
2026-05-07 14:01 50.06978 9.45341 38026 ft 482 kts 290°
2026-05-07 14:02 50.09002 9.35414 38030 ft 481 kts 284°
2026-05-07 14:02 50.10791 9.25361 38032 ft 481 kts 284°
2026-05-07 14:03 50.12574 9.15298 38037 ft 481 kts 284°
2026-05-07 14:03 50.14331 9.05231 38040 ft 481 kts 284°
2026-05-07 14:04 50.16075 8.95158 38043 ft 481 kts 284°
2026-05-07 14:04 50.17810 8.85075 38043 ft 481 kts 284°
2026-05-07 14:05 50.19536 8.74989 38049 ft 481 kts 284°
2026-05-07 14:05 50.21245 8.64945 38046 ft 482 kts 284°
2026-05-07 14:06 50.22958 8.54821 38048 ft 482 kts 284°
2026-05-07 14:06 50.24661 8.44698 38043 ft 482 kts 284°
2026-05-07 14:07 50.26357 8.34555 38049 ft 482 kts 283°
2026-05-07 14:07 50.28042 8.24419 38047 ft 482 kts 283°
2026-05-07 14:08 50.29710 8.14323 38043 ft 482 kts 283°
2026-05-07 14:08 50.31374 8.04186 38036 ft 481 kts 283°
2026-05-07 14:09 50.33021 7.94101 38038 ft 481 kts 283°
2026-05-07 14:09 50.34670 7.83940 38031 ft 481 kts 283°
2026-05-07 14:10 50.36309 7.73778 38031 ft 482 kts 283°
2026-05-07 14:10 50.37941 7.63599 38034 ft 482 kts 283°
2026-05-07 14:11 50.39554 7.53476 38035 ft 482 kts 283°
2026-05-07 14:11 50.41183 7.43187 38040 ft 482 kts 283°
2026-05-07 14:12 50.42779 7.33047 38041 ft 482 kts 283°
2026-05-07 14:12 50.44364 7.22910 38040 ft 482 kts 283°
2026-05-07 14:13 50.45955 7.12672 38039 ft 482 kts 283°
2026-05-07 14:13 50.47529 7.02483 38044 ft 482 kts 283°
2026-05-07 14:14 50.49111 6.92174 38039 ft 482 kts 282°
2026-05-07 14:14 50.50719 6.81951 38035 ft 483 kts 286°
2026-05-07 14:15 50.53085 6.72072 38038 ft 483 kts 290°
2026-05-07 14:15 50.55519 6.62234 38040 ft 483 kts 290°
2026-05-07 14:16 50.57936 6.52392 38042 ft 483 kts 290°
2026-05-07 14:16 50.60352 6.42504 38041 ft 483 kts 290°
2026-05-07 14:17 50.62759 6.32600 38043 ft 483 kts 290°
2026-05-07 14:17 50.65151 6.22720 38035 ft 483 kts 289°
2026-05-07 14:18 50.67519 6.12893 38039 ft 483 kts 289°
2026-05-07 14:18 50.69895 6.02987 38039 ft 483 kts 289°
2026-05-07 14:19 50.72263 5.93071 38044 ft 483 kts 289°
2026-05-07 14:19 50.74623 5.83140 38047 ft 483 kts 289°
2026-05-07 14:20 50.76972 5.73209 38049 ft 483 kts 289°
2026-05-07 14:20 50.79315 5.63261 38051 ft 482 kts 289°
2026-05-07 14:21 50.81644 5.53326 38052 ft 482 kts 289°
2026-05-07 14:21 50.83969 5.43363 38069 ft 482 kts 289°
2026-05-07 14:22 50.86274 5.33439 38069 ft 482 kts 289°
2026-05-07 14:22 50.88574 5.23489 38068 ft 482 kts 289°
2026-05-07 14:23 50.90872 5.13506 38067 ft 482 kts 289°
2026-05-07 14:23 50.93158 5.03524 38068 ft 482 kts 288°
2026-05-07 14:24 50.95434 4.93538 38067 ft 482 kts 288°
2026-05-07 14:24 50.97703 4.83538 38072 ft 482 kts 288°
2026-05-07 14:25 50.99964 4.73524 38072 ft 481 kts 288°
2026-05-07 14:25 51.02216 4.63499 38076 ft 481 kts 288°
2026-05-07 14:26 51.04454 4.53495 38070 ft 481 kts 288°
2026-05-07 14:26 51.06676 4.43511 38073 ft 481 kts 288°
2026-05-07 14:27 51.08899 4.33474 38076 ft 481 kts 288°
2026-05-07 14:27 51.11115 4.23425 38072 ft 481 kts 288°
2026-05-07 14:28 51.13323 4.13360 38070 ft 482 kts 288°
2026-05-07 14:28 51.15524 4.03279 38073 ft 482 kts 288°
2026-05-07 14:29 51.17716 3.93189 38070 ft 482 kts 288°
2026-05-07 14:29 51.19901 3.83079 38071 ft 482 kts 288°
2026-05-07 14:30 51.22074 3.72985 38058 ft 482 kts 287°
2026-05-07 14:30 51.24012 3.62779 38051 ft 481 kts 282°
2026-05-07 14:31 51.25369 3.52392 38060 ft 480 kts 281°
2026-05-07 14:31 51.26770 3.41960 38079 ft 480 kts 281°
2026-05-07 14:32 51.28135 3.31536 38085 ft 480 kts 280°
2026-05-07 14:32 51.29477 3.21045 38094 ft 481 kts 280°
2026-05-07 14:33 51.30808 3.10573 38092 ft 481 kts 280°
2026-05-07 14:33 51.32130 3.00102 38090 ft 481 kts 280°
2026-05-07 14:34 51.33225 2.91376 38066 ft 481 kts 280°
2026-05-07 14:34 51.34575 2.80536 38087 ft 481 kts 280°
2026-05-07 14:35 51.35872 2.70046 38083 ft 481 kts 280°
2026-05-07 14:35 51.37167 2.59537 38091 ft 481 kts 280°
2026-05-07 14:36 51.38452 2.49027 38082 ft 481 kts 279°
2026-05-07 14:36 51.39727 2.38516 38076 ft 481 kts 279°
2026-05-07 14:37 51.40991 2.28001 38091 ft 481 kts 279°
2026-05-07 14:37 51.42873 2.12205 38080 ft 481 kts 279°
2026-05-07 14:38 51.44115 2.01672 38078 ft 481 kts 279°
2026-05-07 14:38 51.45393 1.91140 38079 ft 481 kts 280°
2026-05-07 14:39 51.46686 1.80629 38074 ft 480 kts 279°
2026-05-07 14:39 51.47886 1.70154 38081 ft 480 kts 279°
2026-05-07 14:40 51.49085 1.59608 38092 ft 481 kts 279°
2026-05-07 14:40 51.50081 1.50829 38081 ft 481 kts 279°
2026-05-07 14:41 51.51274 1.40253 38090 ft 481 kts 279°
2026-05-07 14:41 51.52453 1.29706 38076 ft 481 kts 279°
2026-05-07 14:42 51.53626 1.19125 38078 ft 481 kts 278°
2026-05-07 14:42 51.54560 1.08488 38069 ft 480 kts 274°
2026-05-07 14:43 51.55234 0.97807 38076 ft 480 kts 275°
2026-05-07 14:43 51.55917 0.87133 38077 ft 480 kts 274°
2026-05-07 14:44 51.56584 0.76465 38077 ft 480 kts 274°
2026-05-07 14:44 51.57240 0.65774 38075 ft 481 kts 274°
2026-05-07 14:45 51.57886 0.55078 38079 ft 481 kts 274°
2026-05-07 14:45 51.58523 0.44373 38069 ft 481 kts 274°
2026-05-07 14:46 51.59146 0.33737 38067 ft 481 kts 274°
2026-05-07 14:46 51.59762 0.23059 38073 ft 481 kts 274°
2026-05-07 14:47 51.60352 0.12655 38073 ft 480 kts 274°
2026-05-07 14:47 51.60924 0.02411 38080 ft 481 kts 274°
2026-05-07 14:48 51.61514 -0.08314 38075 ft 480 kts 274°
2026-05-07 14:48 51.62124 -0.19022 38065 ft 480 kts 274°
2026-05-07 14:49 51.62795 -0.29674 38075 ft 480 kts 274°
2026-05-07 14:49 51.63451 -0.40370 38046 ft 480 kts 274°
2026-05-07 14:50 51.64089 -0.51081 38049 ft 480 kts 274°
2026-05-07 14:50 51.64716 -0.61788 38043 ft 481 kts 274°
2026-05-07 14:51 51.65334 -0.72498 38043 ft 481 kts 274°
2026-05-07 14:51 51.65944 -0.83251 38046 ft 481 kts 274°
2026-05-07 14:52 51.66543 -0.93979 38046 ft 481 kts 274°
2026-05-07 14:52 51.67132 -1.04714 38049 ft 481 kts 274°
2026-05-07 14:53 51.67711 -1.15452 38049 ft 481 kts 273°
2026-05-07 14:53 51.68280 -1.26192 38048 ft 481 kts 273°
2026-05-07 14:54 51.68840 -1.36932 38048 ft 481 kts 273°
2026-05-07 14:54 51.69389 -1.47676 38050 ft 481 kts 273°
2026-05-07 14:55 51.69933 -1.58354 38049 ft 481 kts 274°
2026-05-07 14:55 51.71214 -1.68953 38047 ft 483 kts 285°
2026-05-07 14:56 51.73672 -1.79059 38033 ft 486 kts 295°
2026-05-07 14:56 51.76717 -1.88798 38032 ft 486 kts 295°
2026-05-07 14:57 51.79727 -1.98580 38022 ft 486 kts 295°
2026-05-07 14:57 51.82375 -2.08615 38020 ft 485 kts 288°
2026-05-07 14:58 51.84729 -2.18844 38025 ft 485 kts 289°
2026-05-07 14:58 51.87101 -2.29070 38025 ft 486 kts 289°
2026-05-07 14:59 51.89455 -2.39306 38026 ft 486 kts 288°
2026-05-07 14:59 51.91801 -2.49579 38020 ft 486 kts 288°
2026-05-07 15:00 51.94134 -2.59846 38019 ft 486 kts 288°
2026-05-07 15:00 51.96448 -2.70081 38027 ft 486 kts 288°
2026-05-07 15:01 51.98765 -2.80380 38029 ft 486 kts 288°
2026-05-07 15:01 52.01073 -2.90685 38023 ft 485 kts 288°
2026-05-07 15:02 52.03369 -3.00992 38019 ft 485 kts 288°
2026-05-07 15:02 52.05656 -3.11310 37990 ft 485 kts 288°
2026-05-07 15:03 52.07931 -3.21624 37995 ft 485 kts 288°
2026-05-07 15:03 52.10196 -3.31941 38010 ft 485 kts 288°
2026-05-07 15:04 52.12451 -3.42266 38017 ft 484 kts 287°
2026-05-07 15:04 52.14703 -3.52630 38019 ft 484 kts 287°
2026-05-07 15:05 52.16928 -3.62916 38001 ft 485 kts 287°
2026-05-07 15:05 52.19156 -3.73276 37998 ft 485 kts 287°
2026-05-07 15:06 52.21380 -3.83667 38008 ft 485 kts 287°
2026-05-07 15:06 52.23591 -3.94054 38001 ft 485 kts 287°
2026-05-07 15:07 52.25798 -4.04470 38002 ft 485 kts 287°
2026-05-07 15:07 52.27995 -4.14894 38008 ft 485 kts 287°
2026-05-07 15:08 52.30182 -4.25323 38004 ft 485 kts 287°
2026-05-07 15:08 52.31807 -4.33107 38000 ft 485 kts 287°
2026-05-07 15:09 52.33967 -4.43503 38001 ft 485 kts 287°
2026-05-07 15:09 52.36132 -4.53976 38004 ft 485 kts 287°
2026-05-07 15:10 52.38281 -4.64430 38002 ft 485 kts 287°
2026-05-07 15:10 52.40425 -4.74911 37997 ft 485 kts 286°
2026-05-07 15:11 52.42559 -4.85403 38001 ft 485 kts 286°
2026-05-07 15:11 52.44683 -4.95898 38001 ft 485 kts 286°
2026-05-07 15:12 52.46799 -5.06409 38000 ft 485 kts 286°
2026-05-07 15:12 52.48905 -5.16931 38004 ft 485 kts 286°
2026-05-07 15:13 52.51002 -5.27460 38000 ft 485 kts 286°
2026-05-07 15:13 52.53072 -5.37911 38000 ft 485 kts 286°
2026-05-07 15:14 52.55153 -5.48446 37995 ft 484 kts 286°
2026-05-07 15:14 52.57213 -5.58992 37993 ft 484 kts 285°
2026-05-07 15:15 52.59270 -5.69523 37986 ft 484 kts 285°
2026-05-07 15:15 52.61341 -5.80077 37976 ft 484 kts 285°
2026-05-07 15:16 52.63404 -5.90619 37978 ft 484 kts 285°
2026-05-07 15:16 52.65456 -6.01168 37970 ft 484 kts 285°
2026-05-07 15:17 52.67498 -6.11752 37973 ft 484 kts 285°
2026-05-07 15:17 52.69519 -6.22308 37970 ft 484 kts 285°
2026-05-07 15:18 52.71540 -6.32926 37963 ft 484 kts 285°
2026-05-07 15:18 52.73546 -6.43523 37953 ft 484 kts 285°
2026-05-07 15:19 52.75546 -6.54149 37954 ft 484 kts 285°
2026-05-07 15:19 52.77518 -6.64689 37945 ft 484 kts 285°
2026-05-07 15:20 52.79495 -6.75314 37944 ft 483 kts 284°
2026-05-07 15:20 52.81462 -6.85940 37943 ft 483 kts 284°
2026-05-07 15:21 52.83419 -6.96581 37941 ft 483 kts 284°
2026-05-07 15:21 52.85361 -7.07200 37938 ft 482 kts 284°
2026-05-07 15:22 52.87294 -7.17828 37937 ft 482 kts 284°
2026-05-07 15:22 52.89205 -7.28394 37933 ft 482 kts 284°
2026-05-07 15:23 52.91130 -7.39104 37926 ft 481 kts 284°
2026-05-07 15:23 52.93018 -7.49673 37929 ft 481 kts 284°
2026-05-07 15:24 52.94905 -7.60292 37925 ft 480 kts 284°
2026-05-07 15:24 52.96783 -7.70927 37924 ft 480 kts 283°
2026-05-07 15:25 52.98339 -7.79787 37926 ft 480 kts 283°
2026-05-07 15:25 53.00497 -7.92141 37930 ft 479 kts 283°
2026-05-07 15:26 53.02042 -8.01046 37928 ft 479 kts 283°
2026-05-07 15:26 53.03867 -8.11619 37927 ft 478 kts 283°
2026-05-07 15:27 53.05702 -8.22311 37935 ft 478 kts 283°
2026-05-07 15:27 53.07512 -8.32927 37935 ft 477 kts 283°
2026-05-07 15:28 53.09315 -8.43564 37937 ft 477 kts 283°
2026-05-07 15:28 53.11091 -8.54107 37935 ft 476 kts 283°
2026-05-07 15:29 53.12870 -8.64731 37941 ft 476 kts 283°
2026-05-07 15:29 53.14636 -8.75342 37944 ft 475 kts 283°
2026-05-07 15:30 53.16392 -8.85957 37944 ft 475 kts 283°
2026-05-07 15:30 53.18134 -8.96556 37945 ft 474 kts 283°
2026-05-07 15:31 53.19870 -9.07183 37945 ft 474 kts 282°
2026-05-07 15:31 53.21592 -9.17792 37939 ft 473 kts 282°
2026-05-07 15:32 53.23300 -9.28378 37934 ft 473 kts 282°
2026-05-07 15:32 53.25004 -9.39009 37933 ft 472 kts 282°
2026-05-07 15:33 53.26678 -9.49519 37940 ft 472 kts 282°
2026-05-07 15:33 53.28357 -9.60124 37918 ft 472 kts 282°
2026-05-07 15:34 53.30029 -9.70756 37941 ft 472 kts 282°
2026-05-07 15:34 53.31691 -9.81390 37947 ft 472 kts 282°
2026-05-07 15:35 53.33340 -9.92014 37957 ft 472 kts 282°
2026-05-07 15:35 53.34978 -10.02633 37954 ft 472 kts 282°
2026-05-07 15:36 53.36611 -10.13291 37936 ft 472 kts 282°
2026-05-07 15:36 53.38227 -10.23902 37936 ft 472 kts 282°
2026-05-07 15:37 53.39835 -10.34538 37939 ft 472 kts 282°
2026-05-07 15:37 53.41438 -10.45205 37935 ft 472 kts 282°
2026-05-07 15:38 53.43029 -10.55870 37932 ft 472 kts 281°
2026-05-07 15:38 53.44611 -10.66542 37933 ft 472 kts 281°
2026-05-07 15:39 53.46186 -10.77238 37935 ft 471 kts 281°
2026-05-07 15:39 53.47750 -10.87934 37935 ft 471 kts 281°
2026-05-07 15:40 53.49303 -10.98624 37936 ft 471 kts 281°
2026-05-07 15:40 53.50847 -11.09332 37933 ft 471 kts 281°
2026-05-07 15:41 53.52381 -11.20044 37932 ft 471 kts 281°
2026-05-07 15:41 53.53896 -11.30695 37933 ft 471 kts 281°
2026-05-07 15:42 53.55293 -11.40585 37934 ft 471 kts 281°
2026-05-07 15:42 53.56800 -11.51320 37937 ft 472 kts 281°
2026-05-07 15:43 53.58300 -11.62089 37939 ft 472 kts 281°
2026-05-07 15:43 53.59789 -11.72854 37935 ft 472 kts 280°
2026-05-07 15:44 53.61263 -11.83588 37935 ft 473 kts 280°
2026-05-07 15:44 53.62735 -11.94386 37938 ft 473 kts 280°
2026-05-07 15:45 53.64196 -12.05180 37938 ft 473 kts 280°
2026-05-07 15:45 53.65651 -12.16008 37937 ft 474 kts 280°
2026-05-07 15:46 53.67816 -12.32273 37940 ft 474 kts 280°
2026-05-07 15:47 53.69245 -12.43116 37945 ft 474 kts 280°
2026-05-07 15:47 53.70664 -12.53957 37950 ft 473 kts 280°
2026-05-07 15:48 53.72075 -12.64821 37946 ft 473 kts 280°
2026-05-07 15:48 53.73474 -12.75669 37949 ft 472 kts 280°
2026-05-07 15:49 53.74859 -12.86501 37951 ft 471 kts 279°
2026-05-07 15:49 53.76235 -12.97336 37946 ft 471 kts 279°
2026-05-07 15:50 53.77597 -13.08153 37944 ft 470 kts 279°
2026-05-07 15:50 53.78942 -13.18916 37946 ft 470 kts 279°
2026-05-07 15:51 53.80279 -13.29698 37954 ft 469 kts 279°
2026-05-07 15:51 53.81607 -13.40499 37960 ft 468 kts 279°
2026-05-07 15:52 53.82927 -13.51314 37966 ft 468 kts 279°
2026-05-07 15:52 53.84233 -13.62105 37968 ft 468 kts 279°
2026-05-07 15:53 53.85531 -13.72916 37950 ft 468 kts 279°
2026-05-07 15:53 53.86818 -13.83721 37952 ft 468 kts 279°
2026-05-07 15:54 53.88099 -13.94563 37958 ft 468 kts 279°
2026-05-07 15:54 53.89361 -14.05329 37957 ft 468 kts 279°
2026-05-07 15:55 53.90620 -14.16167 37960 ft 468 kts 279°
2026-05-07 15:55 53.91871 -14.27026 37960 ft 469 kts 279°
2026-05-07 15:56 53.93110 -14.37867 37964 ft 469 kts 279°
2026-05-07 15:56 53.94343 -14.48749 37966 ft 469 kts 279°
2026-05-07 15:57 53.95566 -14.59630 37966 ft 469 kts 279°
2026-05-07 15:57 53.96786 -14.70528 37967 ft 469 kts 279°
2026-05-07 15:58 53.97997 -14.81405 37969 ft 469 kts 278°
2026-05-07 15:58 53.99180 -14.92237 37973 ft 469 kts 277°
2026-05-07 15:59 53.99967 -15.03230 37977 ft 468 kts 273°
2026-05-07 15:59 54.00247 -15.14268 37974 ft 467 kts 270°
2026-05-07 16:00 54.00472 -15.25324 37972 ft 468 kts 271°
2026-05-07 16:00 54.00700 -15.36378 37980 ft 468 kts 271°
2026-05-07 16:01 54.00897 -15.47423 37982 ft 468 kts 270°
2026-05-07 16:01 54.01077 -15.58482 37985 ft 468 kts 270°
2026-05-07 16:02 54.01248 -15.69574 37986 ft 468 kts 270°
2026-05-07 16:02 54.01409 -15.80639 37991 ft 468 kts 270°
2026-05-07 16:03 54.01559 -15.91693 37994 ft 468 kts 270°
2026-05-07 16:03 54.01699 -16.02781 38008 ft 468 kts 270°
2026-05-07 16:04 54.01830 -16.13840 38000 ft 468 kts 270°
2026-05-07 16:04 54.01950 -16.24937 38005 ft 468 kts 270°
2026-05-07 16:05 54.02060 -16.35990 38002 ft 468 kts 270°
2026-05-07 16:05 54.02160 -16.47064 38006 ft 468 kts 270°
2026-05-07 16:06 54.02249 -16.58155 38011 ft 468 kts 270°
2026-05-07 16:06 54.02328 -16.69198 38014 ft 468 kts 270°
2026-05-07 16:07 54.02397 -16.80201 38015 ft 469 kts 270°
2026-05-07 16:07 54.02456 -16.91312 38017 ft 469 kts 270°
2026-05-07 16:08 54.02505 -17.02387 38023 ft 469 kts 270°
2026-05-07 16:08 54.02544 -17.13494 38021 ft 469 kts 270°
2026-05-07 16:09 54.02572 -17.24605 38025 ft 470 kts 270°
2026-05-07 16:09 54.02591 -17.35731 38023 ft 470 kts 270°
2026-05-07 16:10 54.02599 -17.46839 38030 ft 470 kts 270°
2026-05-07 16:10 54.02596 -17.57977 38028 ft 470 kts 270°
2026-05-07 16:11 54.02587 -17.67203 38035 ft 470 kts 270°
2026-05-07 16:11 54.02561 -17.80131 38033 ft 470 kts 269°
2026-05-07 16:12 54.02534 -17.89468 38039 ft 470 kts 269°
2026-05-07 16:12 54.02493 -18.00523 38035 ft 470 kts 269°
2026-05-07 16:13 54.02441 -18.11679 38039 ft 470 kts 269°
2026-05-07 16:13 54.02379 -18.22802 38050 ft 470 kts 269°
2026-05-07 16:14 54.02306 -18.33914 38048 ft 470 kts 269°
2026-05-07 16:14 54.02224 -18.45014 38036 ft 470 kts 269°
2026-05-07 16:15 54.02131 -18.56124 38059 ft 470 kts 269°
2026-05-07 16:15 54.02028 -18.67248 38062 ft 469 kts 269°
2026-05-07 16:16 54.01915 -18.78318 38063 ft 470 kts 269°
2026-05-07 16:16 54.01792 -18.89436 38063 ft 470 kts 269°
2026-05-07 16:17 54.01658 -19.00529 38057 ft 470 kts 269°
2026-05-07 16:17 54.01514 -19.11648 38059 ft 470 kts 269°
2026-05-07 16:18 54.01360 -19.22785 38063 ft 470 kts 269°
2026-05-07 16:18 54.01208 -19.33056 38067 ft 470 kts 268°
2026-05-07 16:19 54.01036 -19.44060 38069 ft 470 kts 268°
2026-05-07 16:19 54.00852 -19.55130 38075 ft 470 kts 268°
2026-05-07 16:20 54.00664 -19.65920 38077 ft 470 kts 268°
2026-05-07 16:20 54.00522 -19.73702 38076 ft 470 kts 268°
2026-05-07 16:21 54.00312 -19.84821 38079 ft 470 kts 268°
2026-05-07 16:21 54.00096 -19.96014 38082 ft 470 kts 268°
2026-05-07 16:22 53.99594 -20.07043 38083 ft 470 kts 263°
2026-05-07 16:22 53.98918 -20.18022 38084 ft 470 kts 265°
2026-05-07 16:23 53.98285 -20.29144 38085 ft 470 kts 264°
2026-05-07 16:23 53.97636 -20.40293 38084 ft 470 kts 264°
2026-05-07 16:24 53.96981 -20.51302 38093 ft 471 kts 264°
2026-05-07 16:24 53.96319 -20.62231 38092 ft 471 kts 264°
2026-05-07 16:25 53.95641 -20.73142 38097 ft 471 kts 264°
2026-05-07 16:25 53.95018 -20.83005 38100 ft 471 kts 264°
2026-05-07 16:26 53.94371 -20.93113 38099 ft 472 kts 264°
2026-05-07 16:26 53.93644 -21.04296 38102 ft 472 kts 264°
2026-05-07 16:27 53.92923 -21.15240 38102 ft 472 kts 264°
2026-05-07 16:27 53.92241 -21.25462 38104 ft 472 kts 264°
2026-05-07 16:28 53.91491 -21.36551 38111 ft 473 kts 264°
2026-05-07 16:28 53.90736 -21.47556 38116 ft 473 kts 264°
2026-05-07 16:29 53.89958 -21.58724 38111 ft 473 kts 264°
2026-05-07 16:29 53.89187 -21.69668 38113 ft 473 kts 263°
2026-05-07 16:30 53.88400 -21.80689 38114 ft 474 kts 263°
2026-05-07 16:30 53.87586 -21.91922 38115 ft 474 kts 263°
2026-05-07 16:31 53.86773 -22.03007 38118 ft 474 kts 263°
2026-05-07 16:31 53.85944 -22.14162 38120 ft 474 kts 263°
2026-05-07 16:32 53.85114 -22.25183 38126 ft 475 kts 263°
2026-05-07 16:32 53.84264 -22.36345 38118 ft 475 kts 263°
2026-05-07 16:33 53.83408 -22.47437 38121 ft 475 kts 263°
2026-05-07 16:33 53.82545 -22.58479 38137 ft 475 kts 263°
2026-05-07 16:34 53.81672 -22.69521 38134 ft 475 kts 263°
2026-05-07 16:34 53.80785 -22.80607 38139 ft 475 kts 263°
2026-05-07 16:35 53.79886 -22.91700 38138 ft 476 kts 263°
2026-05-07 16:35 53.78977 -23.02797 38138 ft 476 kts 263°
2026-05-07 16:36 53.78059 -23.13874 38139 ft 476 kts 262°
2026-05-07 16:36 53.77133 -23.24908 38143 ft 476 kts 262°
2026-05-07 16:37 53.76191 -23.36019 38140 ft 476 kts 262°
2026-05-07 16:37 53.75240 -23.47099 38144 ft 476 kts 262°
2026-05-07 16:38 53.74293 -23.58017 38146 ft 476 kts 262°
2026-05-07 16:38 53.73323 -23.69088 38152 ft 476 kts 262°
2026-05-07 16:39 53.72342 -23.80153 38151 ft 477 kts 262°
2026-05-07 16:39 53.71348 -23.91237 38153 ft 477 kts 262°
2026-05-07 16:40 53.70346 -24.02299 38153 ft 477 kts 262°
2026-05-07 16:40 53.69334 -24.13359 38159 ft 477 kts 262°
2026-05-07 16:41 53.68307 -24.24456 38163 ft 477 kts 262°
2026-05-07 16:41 53.67270 -24.35549 38165 ft 478 kts 262°
2026-05-07 16:42 53.66226 -24.46606 38170 ft 478 kts 262°
2026-05-07 16:42 53.65172 -24.57645 38165 ft 478 kts 262°
2026-05-07 16:43 53.64107 -24.68696 38171 ft 478 kts 262°
2026-05-07 16:43 53.63027 -24.79794 38172 ft 478 kts 261°
2026-05-07 16:44 53.61947 -24.90774 38176 ft 478 kts 261°
2026-05-07 16:44 53.60847 -25.01851 38176 ft 478 kts 261°
2026-05-07 16:45 53.59743 -25.12863 38181 ft 479 kts 261°
2026-05-07 16:45 53.58621 -25.23939 38182 ft 479 kts 261°
2026-05-07 16:46 53.57495 -25.34961 38181 ft 479 kts 261°
2026-05-07 16:46 53.56364 -25.45917 38190 ft 479 kts 261°
2026-05-07 16:47 53.55240 -25.56706 38188 ft 479 kts 261°
2026-05-07 16:47 53.54072 -25.67826 38192 ft 479 kts 261°
2026-05-07 16:48 53.52891 -25.78948 38192 ft 479 kts 261°
2026-05-07 16:48 53.51929 -25.87937 38191 ft 479 kts 261°
2026-05-07 16:49 53.51339 -25.93423 38190 ft 479 kts 261°
2026-05-07 16:49 53.50490 -26.01271 38195 ft 479 kts 261°
2026-05-07 16:50 53.49579 -26.09635 38194 ft 479 kts 260°
2026-05-07 16:50 53.48734 -26.17338 38194 ft 479 kts 260°
2026-05-07 16:51 53.48033 -26.23696 38202 ft 480 kts 260°
2026-05-07 16:51 53.47350 -26.29856 38205 ft 480 kts 260°
2026-05-07 16:52 53.46117 -26.40905 38205 ft 480 kts 260°
2026-05-07 16:52 53.44931 -26.51433 38204 ft 480 kts 260°
2026-05-07 16:53 53.43668 -26.62553 38208 ft 480 kts 260°
2026-05-07 16:53 53.42610 -26.71792 38209 ft 480 kts 260°
2026-05-07 16:54 53.41343 -26.82766 38208 ft 480 kts 259°
2026-05-07 16:54 53.40053 -26.93853 38211 ft 480 kts 259°
2026-05-07 16:55 53.38762 -27.04850 38214 ft 480 kts 259°
2026-05-07 16:55 53.37473 -27.15743 38221 ft 480 kts 259°
2026-05-07 16:56 53.36158 -27.26765 38220 ft 480 kts 259°
2026-05-07 16:56 53.34178 -27.43186 38221 ft 480 kts 259°
2026-05-07 16:57 53.32846 -27.54112 38224 ft 480 kts 259°
2026-05-07 16:57 53.31495 -27.65119 38226 ft 480 kts 259°
2026-05-07 16:58 53.30235 -27.75295 38226 ft 480 kts 259°
2026-05-07 16:58 53.28952 -27.85584 38227 ft 481 kts 259°
2026-05-07 16:59 53.27584 -27.96473 38228 ft 481 kts 259°
2026-05-07 16:59 53.26191 -28.07470 38229 ft 481 kts 258°
2026-05-07 17:00 53.24791 -28.18432 38232 ft 482 kts 258°
2026-05-07 17:00 53.23384 -28.29369 38235 ft 482 kts 258°
2026-05-07 17:01 53.21973 -28.40246 38239 ft 482 kts 258°
2026-05-07 17:01 53.20533 -28.51267 38242 ft 483 kts 258°
2026-05-07 17:02 53.19101 -28.62144 38249 ft 483 kts 258°
2026-05-07 17:02 53.17644 -28.73128 38250 ft 483 kts 258°
2026-05-07 17:03 53.16185 -28.84040 38252 ft 483 kts 258°
2026-05-07 17:03 53.14712 -28.94972 38255 ft 483 kts 258°
2026-05-07 17:04 53.13235 -29.05862 38253 ft 483 kts 258°
2026-05-07 17:04 53.11755 -29.16686 38252 ft 483 kts 258°
2026-05-07 17:05 53.10220 -29.27831 38255 ft 483 kts 258°
2026-05-07 17:05 53.08718 -29.38656 38255 ft 483 kts 258°
2026-05-07 17:06 53.07196 -29.49547 38262 ft 483 kts 258°
2026-05-07 17:06 53.05667 -29.60424 38257 ft 484 kts 258°
2026-05-07 17:07 53.04132 -29.71306 38262 ft 484 kts 258°
2026-05-07 17:07 53.02588 -29.82191 38269 ft 484 kts 258°
2026-05-07 17:08 53.01031 -29.93094 38272 ft 484 kts 258°
2026-05-07 17:08 52.99500 -30.03976 38267 ft 484 kts 259°
2026-05-07 17:09 52.98335 -30.14919 38284 ft 483 kts 262°
2026-05-07 17:09 52.97238 -30.25906 38285 ft 483 kts 262°
2026-05-07 17:10 52.96092 -30.36899 38290 ft 483 kts 261°
2026-05-07 17:10 52.94926 -30.47850 38281 ft 483 kts 261°
2026-05-07 17:11 52.93743 -30.58846 38283 ft 483 kts 261°
2026-05-07 17:11 52.92549 -30.69787 38287 ft 483 kts 261°
2026-05-07 17:12 52.91342 -30.80726 38283 ft 483 kts 261°
2026-05-07 17:12 52.90121 -30.91686 38286 ft 482 kts 261°
2026-05-07 17:13 52.88894 -31.02610 38282 ft 482 kts 261°
2026-05-07 17:13 52.87656 -31.13523 38289 ft 482 kts 261°
2026-05-07 17:14 52.86408 -31.24442 38283 ft 482 kts 261°
2026-05-07 17:14 52.85159 -31.35277 38289 ft 483 kts 261°
2026-05-07 17:15 52.83890 -31.46186 38294 ft 483 kts 261°
2026-05-07 17:15 52.82612 -31.57086 38293 ft 483 kts 261°
2026-05-07 17:16 52.81322 -31.67996 38292 ft 483 kts 261°
2026-05-07 17:16 52.80023 -31.78889 38295 ft 483 kts 261°
2026-05-07 17:17 52.78712 -31.89796 38296 ft 483 kts 261°
2026-05-07 17:17 52.77396 -32.00648 38309 ft 483 kts 261°
2026-05-07 17:18 52.76062 -32.11565 38298 ft 483 kts 261°
2026-05-07 17:18 52.74725 -32.22415 38302 ft 483 kts 261°
2026-05-07 17:19 52.73377 -32.33273 38309 ft 482 kts 261°
2026-05-07 17:19 52.72018 -32.44123 38303 ft 482 kts 261°
2026-05-07 17:20 52.70653 -32.54943 38294 ft 482 kts 261°
2026-05-07 17:20 52.69279 -32.65752 38315 ft 482 kts 261°
2026-05-07 17:21 52.67895 -32.76551 38312 ft 481 kts 261°
2026-05-07 17:21 52.66512 -32.87260 38312 ft 481 kts 261°
2026-05-07 17:22 52.65112 -32.98020 38309 ft 480 kts 261°
2026-05-07 17:22 52.63705 -33.08748 38314 ft 479 kts 261°
2026-05-07 17:23 52.62865 -33.15121 38318 ft 479 kts 261°
2026-05-07 17:23 52.61453 -33.25760 38315 ft 478 kts 261°
2026-05-07 17:24 52.60031 -33.36401 38314 ft 478 kts 261°
2026-05-07 17:24 52.58614 -33.46917 38308 ft 477 kts 262°
2026-05-07 17:25 52.57164 -33.57621 38310 ft 476 kts 262°
2026-05-07 17:25 52.55725 -33.68150 38314 ft 476 kts 262°
2026-05-07 17:26 52.54255 -33.78833 38314 ft 475 kts 262°
2026-05-07 17:26 52.52792 -33.89393 38315 ft 474 kts 262°
2026-05-07 17:27 52.51315 -33.99980 38315 ft 474 kts 262°
2026-05-07 17:27 52.49832 -34.10526 38310 ft 473 kts 262°
2026-05-07 17:28 52.48346 -34.21027 38315 ft 473 kts 262°
2026-05-07 17:28 52.46848 -34.31533 38317 ft 472 kts 262°
2026-05-07 17:29 52.45345 -34.42010 38312 ft 472 kts 262°
2026-05-07 17:29 52.43834 -34.52470 38316 ft 471 kts 262°
2026-05-07 17:30 52.42312 -34.62936 38316 ft 471 kts 262°
2026-05-07 17:30 52.40789 -34.73334 38317 ft 470 kts 262°
2026-05-07 17:31 52.39243 -34.83820 38317 ft 470 kts 261°
2026-05-07 17:31 52.38190 -34.90924 38306 ft 470 kts 262°
2026-05-07 17:32 52.36632 -35.01373 38303 ft 470 kts 261°
2026-05-07 17:32 52.35085 -35.11684 38323 ft 470 kts 261°
2026-05-07 17:33 52.33519 -35.22052 38322 ft 470 kts 261°
2026-05-07 17:33 52.31945 -35.32404 38320 ft 469 kts 261°
2026-05-07 17:34 52.30361 -35.42758 38318 ft 469 kts 261°
2026-05-07 17:34 52.28770 -35.53092 38316 ft 468 kts 261°
2026-05-07 17:35 52.27168 -35.63428 38313 ft 468 kts 261°
2026-05-07 17:35 52.25573 -35.73656 38325 ft 468 kts 261°
2026-05-07 17:36 52.23954 -35.83971 38321 ft 468 kts 261°
2026-05-07 17:36 52.22342 -35.94178 38334 ft 467 kts 261°
2026-05-07 17:37 52.20712 -36.04437 38328 ft 467 kts 261°
2026-05-07 17:37 52.19073 -36.14691 38318 ft 467 kts 261°
2026-05-07 17:38 52.17418 -36.24976 38317 ft 467 kts 261°
2026-05-07 17:38 52.15777 -36.35113 38316 ft 466 kts 261°
2026-05-07 17:39 52.14116 -36.45318 38321 ft 466 kts 261°
2026-05-07 17:39 52.12443 -36.55530 38318 ft 466 kts 261°
2026-05-07 17:40 52.10769 -36.65688 38321 ft 466 kts 261°
2026-05-07 17:40 52.09077 -36.75892 38314 ft 465 kts 261°
2026-05-07 17:41 52.08241 -36.80909 38093 ft 465 kts 261°
2026-05-07 17:41 52.07440 -36.85673 38372 ft 460 kts 262°
2026-05-07 17:41 52.05994 -36.94289 38314 ft 454 kts 262°
2026-05-07 17:42 52.04560 -37.02839 38308 ft 455 kts 262°
2026-05-07 17:42 52.03027 -37.11910 38312 ft 456 kts 262°
2026-05-07 17:43 52.01344 -37.21795 38310 ft 456 kts 262°
2026-05-07 17:43 51.99636 -37.31770 38312 ft 456 kts 261°
2026-05-07 17:44 51.97919 -37.41736 38319 ft 457 kts 261°
2026-05-07 17:44 51.96255 -37.51350 38321 ft 457 kts 261°
2026-05-07 17:45 51.94523 -37.61291 38313 ft 457 kts 261°
2026-05-07 17:45 51.92790 -37.71190 38311 ft 457 kts 261°
2026-05-07 17:46 51.91051 -37.81066 38309 ft 457 kts 261°
2026-05-07 17:46 51.89290 -37.91009 38305 ft 457 kts 261°
2026-05-07 17:47 51.87512 -38.00997 38301 ft 457 kts 260°
2026-05-07 17:47 51.85746 -38.10857 38305 ft 457 kts 260°
2026-05-07 17:48 51.84097 -38.20018 38307 ft 457 kts 260°
2026-05-07 17:48 51.82337 -38.29747 38304 ft 457 kts 260°
2026-05-07 17:49 51.80541 -38.39622 38304 ft 457 kts 259°
2026-05-07 17:49 51.78740 -38.49470 38303 ft 457 kts 259°
2026-05-07 17:50 51.76944 -38.59240 38305 ft 457 kts 259°
2026-05-07 17:50 51.75124 -38.69086 38307 ft 457 kts 259°
2026-05-07 17:51 51.73297 -38.78921 38310 ft 457 kts 259°
2026-05-07 17:51 51.71463 -38.88737 38306 ft 457 kts 259°
2026-05-07 17:52 51.69619 -38.98562 38307 ft 457 kts 259°
2026-05-07 17:52 51.67767 -39.08372 38295 ft 457 kts 258°
2026-05-07 17:53 51.65907 -39.18177 38286 ft 458 kts 258°
2026-05-07 17:53 51.64037 -39.27978 38286 ft 458 kts 258°
2026-05-07 17:54 51.62170 -39.37714 38298 ft 458 kts 258°
2026-05-07 17:54 51.60285 -39.47498 38298 ft 458 kts 258°
2026-05-07 17:55 51.58391 -39.57279 38294 ft 458 kts 258°
2026-05-07 17:55 51.56493 -39.67052 38297 ft 459 kts 258°
2026-05-07 17:56 51.54585 -39.76847 38292 ft 459 kts 257°
2026-05-07 17:56 51.52668 -39.86637 38293 ft 459 kts 257°
2026-05-07 17:57 51.51066 -39.94784 38295 ft 459 kts 257°
2026-05-07 17:57 51.49054 -40.06288 38290 ft 454 kts 265°
2026-05-07 17:58 51.48155 -40.16313 38285 ft 453 kts 266°
2026-05-07 17:58 51.47214 -40.26261 38287 ft 455 kts 265°
2026-05-07 17:59 51.46175 -40.36275 38283 ft 455 kts 264°
2026-05-07 17:59 51.45109 -40.46290 38284 ft 456 kts 264°
2026-05-07 18:00 51.44035 -40.56306 38289 ft 456 kts 264°
2026-05-07 18:00 51.42947 -40.66333 38283 ft 457 kts 264°
2026-05-07 18:01 51.41848 -40.76348 38282 ft 457 kts 264°
2026-05-07 18:01 51.40735 -40.86397 38282 ft 457 kts 264°
2026-05-07 18:02 51.39086 -41.01147 38274 ft 457 kts 263°
2026-05-07 18:03 51.37968 -41.11049 38276 ft 458 kts 263°
2026-05-07 18:03 51.36835 -41.21000 38269 ft 458 kts 263°
2026-05-07 18:04 51.35680 -41.31064 38289 ft 458 kts 263°
2026-05-07 18:04 51.34527 -41.41031 38271 ft 458 kts 263°
2026-05-07 18:05 51.33359 -41.51056 38283 ft 458 kts 263°
2026-05-07 18:05 51.32183 -41.61065 38264 ft 458 kts 262°
2026-05-07 18:06 51.30997 -41.71077 38253 ft 458 kts 262°
2026-05-07 18:06 51.30005 -41.79396 38262 ft 458 kts 262°
2026-05-07 18:07 51.28803 -41.89412 38265 ft 458 kts 262°
2026-05-07 18:07 51.27592 -41.99420 38258 ft 458 kts 262°
2026-05-07 18:08 51.26374 -42.09409 38265 ft 458 kts 262°
2026-05-07 18:08 51.25146 -42.19408 38268 ft 458 kts 261°
2026-05-07 18:09 51.23911 -42.29387 38265 ft 458 kts 261°
2026-05-07 18:09 51.22670 -42.39348 38265 ft 458 kts 261°
2026-05-07 18:10 51.21428 -42.49235 38264 ft 458 kts 261°
2026-05-07 18:10 51.20160 -42.59259 38262 ft 458 kts 261°
2026-05-07 18:11 51.18900 -42.69150 38260 ft 458 kts 261°
2026-05-07 18:11 51.17624 -42.79095 38248 ft 458 kts 261°
2026-05-07 18:12 51.16341 -42.89021 38256 ft 458 kts 260°
2026-05-07 18:12 51.15047 -42.98963 38256 ft 458 kts 260°
2026-05-07 18:13 51.13747 -43.08885 38265 ft 458 kts 260°
2026-05-07 18:13 51.12437 -43.18808 38258 ft 458 kts 260°
2026-05-07 18:14 51.11124 -43.28684 38255 ft 458 kts 259°
2026-05-07 18:14 51.09799 -43.38584 38250 ft 458 kts 259°
2026-05-07 18:15 51.08464 -43.48493 38255 ft 458 kts 259°
2026-05-07 18:15 51.07122 -43.58382 38255 ft 458 kts 259°
2026-05-07 18:16 51.05771 -43.68275 38252 ft 458 kts 259°
2026-05-07 18:16 51.04410 -43.78168 38250 ft 457 kts 259°
2026-05-07 18:17 51.03043 -43.88048 38248 ft 457 kts 259°
2026-05-07 18:17 51.01678 -43.97837 38249 ft 457 kts 259°
2026-05-07 18:18 51.00294 -44.07701 38250 ft 457 kts 258°
2026-05-07 18:18 50.98903 -44.17552 38248 ft 457 kts 258°
2026-05-07 18:19 50.97504 -44.27397 38248 ft 457 kts 258°
2026-05-07 18:19 50.96097 -44.37228 38249 ft 457 kts 258°
2026-05-07 18:20 50.94680 -44.47070 38244 ft 457 kts 258°
2026-05-07 18:20 50.93257 -44.56886 38246 ft 457 kts 258°
2026-05-07 18:21 50.91823 -44.66722 38250 ft 457 kts 258°
2026-05-07 18:21 50.90381 -44.76546 38246 ft 457 kts 258°
2026-05-07 18:22 50.88932 -44.86355 38250 ft 457 kts 258°
2026-05-07 18:22 50.87475 -44.96158 38250 ft 457 kts 257°
2026-05-07 18:23 50.86010 -45.05946 38248 ft 457 kts 257°
2026-05-07 18:23 50.84537 -45.15734 38249 ft 457 kts 257°
2026-05-07 18:24 50.83066 -45.25449 38249 ft 456 kts 257°
2026-05-07 18:24 50.81576 -45.35228 38248 ft 456 kts 257°
2026-05-07 18:25 50.80082 -45.44973 38249 ft 456 kts 257°
2026-05-07 18:25 50.78582 -45.54700 38245 ft 455 kts 257°
2026-05-07 18:26 50.77084 -45.64355 38243 ft 455 kts 257°
2026-05-07 18:26 50.75571 -45.74051 38241 ft 454 kts 257°
2026-05-07 18:27 50.74049 -45.83741 38245 ft 454 kts 257°
2026-05-07 18:27 50.72521 -45.93417 38246 ft 454 kts 257°
2026-05-07 18:28 50.70988 -46.03066 38247 ft 453 kts 256°
2026-05-07 18:28 50.69447 -46.12713 38247 ft 453 kts 256°
2026-05-07 18:29 50.67897 -46.22352 38247 ft 452 kts 256°
2026-05-07 18:29 50.66354 -46.31895 38244 ft 452 kts 256°
2026-05-07 18:30 50.64797 -46.41477 38243 ft 452 kts 256°
2026-05-07 18:30 50.63229 -46.51067 38238 ft 451 kts 256°
2026-05-07 18:31 50.61655 -46.60635 38244 ft 451 kts 256°
2026-05-07 18:31 50.60083 -46.70141 38242 ft 450 kts 256°
2026-05-07 18:32 50.58497 -46.79679 38243 ft 450 kts 255°
2026-05-07 18:32 50.56905 -46.89201 38240 ft 450 kts 255°
2026-05-07 18:33 50.55306 -46.98708 38240 ft 449 kts 255°
2026-05-07 18:33 50.53700 -47.08206 38239 ft 449 kts 255°
2026-05-07 18:34 50.52090 -47.17677 38234 ft 448 kts 255°
2026-05-07 18:34 50.50475 -47.27126 38232 ft 448 kts 255°
2026-05-07 18:35 50.48847 -47.36597 38235 ft 448 kts 255°
2026-05-07 18:35 50.47227 -47.45971 38236 ft 447 kts 254°
2026-05-07 18:36 50.45594 -47.55372 38234 ft 447 kts 254°
2026-05-07 18:36 50.43951 -47.64783 38234 ft 446 kts 254°
2026-05-07 18:37 50.42303 -47.74171 38230 ft 446 kts 254°
2026-05-07 18:37 50.40649 -47.83538 38230 ft 446 kts 253°
2026-05-07 18:38 50.38987 -47.92905 38229 ft 446 kts 253°
2026-05-07 18:38 50.37321 -48.02247 38227 ft 445 kts 253°
2026-05-07 18:39 50.35646 -48.11594 38229 ft 445 kts 253°
2026-05-07 18:39 50.33975 -48.20862 38231 ft 445 kts 253°
2026-05-07 18:40 50.32287 -48.30183 38228 ft 444 kts 253°
2026-05-07 18:40 50.30597 -48.39469 38224 ft 444 kts 252°
2026-05-07 18:41 50.28901 -48.48737 38224 ft 443 kts 252°
2026-05-07 18:41 50.27195 -48.58012 38221 ft 443 kts 252°
2026-05-07 18:42 50.25487 -48.67252 38219 ft 442 kts 252°
2026-05-07 18:42 50.23772 -48.76483 38213 ft 442 kts 252°
2026-05-07 18:43 50.22052 -48.85699 38210 ft 441 kts 251°
2026-05-07 18:43 50.20339 -48.94828 38206 ft 441 kts 251°
2026-05-07 18:44 50.18607 -49.04017 38207 ft 441 kts 251°
2026-05-07 18:44 50.16867 -49.13200 38206 ft 441 kts 251°
2026-05-07 18:45 50.15120 -49.22375 38204 ft 441 kts 251°
2026-05-07 18:45 50.13378 -49.31480 38202 ft 441 kts 251°
2026-05-07 18:46 50.11616 -49.40650 38195 ft 441 kts 251°
2026-05-07 18:46 50.09853 -49.49775 38199 ft 440 kts 250°
2026-05-07 18:47 50.08082 -49.58904 38197 ft 440 kts 250°
2026-05-07 18:47 50.06301 -49.68064 38189 ft 440 kts 250°
2026-05-07 18:48 50.04588 -49.76845 38194 ft 440 kts 250°
2026-05-07 18:48 50.02816 -49.85887 38192 ft 440 kts 250°
2026-05-07 18:49 50.01028 -49.94965 38184 ft 439 kts 249°
2026-05-07 18:49 49.99093 -50.03947 38169 ft 437 kts 246°
2026-05-07 18:50 49.96916 -50.12758 38171 ft 436 kts 246°
2026-05-07 18:50 49.94803 -50.21601 38167 ft 436 kts 246°
2026-05-07 18:51 49.92678 -50.30429 38169 ft 436 kts 246°
2026-05-07 18:51 49.90542 -50.39236 38169 ft 435 kts 246°
2026-05-07 18:52 49.88402 -50.48017 38145 ft 435 kts 246°
2026-05-07 18:52 49.86260 -50.56770 38144 ft 435 kts 246°
2026-05-07 18:53 49.84110 -50.65525 38138 ft 434 kts 246°
2026-05-07 18:53 49.81968 -50.74212 38151 ft 434 kts 246°
2026-05-07 18:54 49.79806 -50.82943 38146 ft 434 kts 245°
2026-05-07 18:54 49.77647 -50.91630 38141 ft 434 kts 245°
2026-05-07 18:55 49.75838 -50.98881 38138 ft 434 kts 245°
2026-05-07 18:55 49.73645 -51.07644 38128 ft 434 kts 245°
2026-05-07 18:56 49.71468 -51.16307 38127 ft 434 kts 245°
2026-05-07 18:56 49.69277 -51.24991 38122 ft 434 kts 245°
2026-05-07 18:57 49.67086 -51.33641 38120 ft 434 kts 245°
2026-05-07 18:57 49.64876 -51.42336 38114 ft 435 kts 245°
2026-05-07 18:58 49.62674 -51.50961 38107 ft 435 kts 244°
2026-05-07 18:58 49.60451 -51.59640 38103 ft 434 kts 244°
2026-05-07 18:59 49.58225 -51.68294 38095 ft 434 kts 244°
2026-05-07 18:59 49.55993 -51.76941 38088 ft 434 kts 244°
2026-05-07 19:00 49.53752 -51.85588 38081 ft 434 kts 244°
2026-05-07 19:00 49.51518 -51.94178 38075 ft 434 kts 244°
2026-05-07 19:01 49.49180 -52.02796 38068 ft 433 kts 241°
2026-05-07 19:01 49.46668 -52.11147 38058 ft 433 kts 242°
2026-05-07 19:02 49.44172 -52.19582 38051 ft 433 kts 242°
2026-05-07 19:02 49.41686 -52.28007 38057 ft 434 kts 242°
2026-05-07 19:03 49.39209 -52.36375 38043 ft 434 kts 242°
2026-05-07 19:03 49.36703 -52.44809 38048 ft 434 kts 242°
2026-05-07 19:04 49.34163 -52.53330 38048 ft 434 kts 242°
2026-05-07 19:04 49.31668 -52.61669 38035 ft 434 kts 242°
2026-05-07 19:05 49.29147 -52.70065 38031 ft 434 kts 242°
2026-05-07 19:05 49.26638 -52.78395 38026 ft 434 kts 242°
2026-05-07 19:06 49.24097 -52.86800 38024 ft 433 kts 242°
2026-05-07 19:06 49.20307 -52.99261 38021 ft 433 kts 242°
2026-05-07 19:07 49.17723 -53.07713 38011 ft 433 kts 242°
2026-05-07 19:07 49.15185 -53.15986 38015 ft 432 kts 242°
2026-05-07 19:08 49.12630 -53.24286 38008 ft 432 kts 242°
2026-05-07 19:08 49.10059 -53.32608 38011 ft 432 kts 242°
2026-05-07 19:09 49.07490 -53.40900 38012 ft 432 kts 242°
2026-05-07 19:09 49.04953 -53.49059 38013 ft 432 kts 242°
2026-05-07 19:10 49.02369 -53.57340 38014 ft 432 kts 242°
2026-05-07 19:10 48.99780 -53.65612 38012 ft 432 kts 242°
2026-05-07 19:11 48.97203 -53.73819 38016 ft 432 kts 242°
2026-05-07 19:11 48.94583 -53.82134 38015 ft 433 kts 242°
2026-05-07 19:12 48.91965 -53.90414 38019 ft 433 kts 243°
2026-05-07 19:12 48.89346 -53.98671 38021 ft 434 kts 243°
2026-05-07 19:13 48.86735 -54.06876 38024 ft 434 kts 243°
2026-05-07 19:13 48.84079 -54.15193 38012 ft 434 kts 243°
2026-05-07 19:14 48.81459 -54.23375 38006 ft 435 kts 243°
2026-05-07 19:14 48.78806 -54.31630 38003 ft 435 kts 243°
2026-05-07 19:15 48.76146 -54.39879 37991 ft 435 kts 243°
2026-05-07 19:15 48.73486 -54.48103 37994 ft 435 kts 243°
2026-05-07 19:16 48.70814 -54.56334 37994 ft 435 kts 243°
2026-05-07 19:16 48.68163 -54.64478 37990 ft 434 kts 243°
2026-05-07 19:17 48.65476 -54.72704 37990 ft 434 kts 243°
2026-05-07 19:17 48.62794 -54.80889 37980 ft 434 kts 243°
2026-05-07 19:18 48.60108 -54.89058 37977 ft 434 kts 243°
2026-05-07 19:18 48.57417 -54.97218 37981 ft 434 kts 243°
2026-05-07 19:19 48.54736 -55.05322 37977 ft 433 kts 243°
2026-05-07 19:19 48.52035 -55.13460 37971 ft 433 kts 243°
2026-05-07 19:20 48.49339 -55.21556 37970 ft 432 kts 243°
2026-05-07 19:20 48.46623 -55.29684 37949 ft 432 kts 243°
2026-05-07 19:21 48.43938 -55.37698 37944 ft 431 kts 243°
2026-05-07 19:21 48.41216 -55.45797 37941 ft 430 kts 243°
2026-05-07 19:22 48.38540 -55.53733 37932 ft 429 kts 243°
2026-05-07 19:22 48.35823 -55.61765 37927 ft 428 kts 243°
2026-05-07 19:23 48.33141 -55.69670 37925 ft 427 kts 243°
2026-05-07 19:23 48.30439 -55.77608 37914 ft 426 kts 243°
2026-05-07 19:24 48.27738 -55.85521 37909 ft 425 kts 243°
2026-05-07 19:24 48.25039 -55.93404 37901 ft 424 kts 243°
2026-05-07 19:25 48.22339 -56.01263 37896 ft 424 kts 242°
2026-05-07 19:25 48.19629 -56.09128 37889 ft 423 kts 242°
2026-05-07 19:26 48.16917 -56.16977 37884 ft 423 kts 242°
2026-05-07 19:26 48.14212 -56.24779 37871 ft 423 kts 242°
2026-05-07 19:27 48.11510 -56.32551 37866 ft 423 kts 242°
2026-05-07 19:27 48.08790 -56.40351 37866 ft 423 kts 242°
2026-05-07 19:28 48.06061 -56.48154 37873 ft 424 kts 242°
2026-05-07 19:28 48.03324 -56.55957 37877 ft 424 kts 242°
2026-05-07 19:29 48.00573 -56.63777 37890 ft 425 kts 242°
2026-05-07 19:29 47.97811 -56.71602 37902 ft 426 kts 242°
2026-05-07 19:30 47.95033 -56.79450 37909 ft 427 kts 242°
2026-05-07 19:30 47.92268 -56.87239 37913 ft 428 kts 242°
2026-05-07 19:31 47.89480 -56.95070 37929 ft 428 kts 242°
2026-05-07 19:31 47.86686 -57.02892 37934 ft 428 kts 242°
2026-05-07 19:32 47.83887 -57.10705 37935 ft 427 kts 242°
2026-05-07 19:32 47.81085 -57.18504 37936 ft 426 kts 242°
2026-05-07 19:33 47.78284 -57.26277 37937 ft 426 kts 242°
2026-05-07 19:33 47.75483 -57.34029 37936 ft 425 kts 242°
2026-05-07 19:34 47.72680 -57.41760 37933 ft 424 kts 242°
2026-05-07 19:34 47.69895 -57.49422 37940 ft 424 kts 242°
2026-05-07 19:35 47.67092 -57.57109 37936 ft 423 kts 242°
2026-05-07 19:35 47.64292 -57.64769 37932 ft 422 kts 242°
2026-05-07 19:36 47.61494 -57.72397 37932 ft 420 kts 242°
2026-05-07 19:36 47.58720 -57.79941 37928 ft 419 kts 241°
2026-05-07 19:37 47.55931 -57.87505 37924 ft 417 kts 241°
2026-05-07 19:37 47.53148 -57.95029 37914 ft 415 kts 241°
2026-05-07 19:38 47.50371 -58.02517 37911 ft 414 kts 241°
2026-05-07 19:38 47.47600 -58.09966 37898 ft 412 kts 240°
2026-05-07 19:39 47.44837 -58.17373 37883 ft 411 kts 240°
2026-05-07 19:39 47.42541 -58.23515 37876 ft 410 kts 240°
2026-05-07 19:40 47.39335 -58.32065 37859 ft 409 kts 240°
2026-05-07 19:40 47.37046 -58.38152 37854 ft 408 kts 240°
2026-05-07 19:41 47.34289 -58.45467 37849 ft 407 kts 240°
2026-05-07 19:41 47.31534 -58.52755 37835 ft 406 kts 240°
2026-05-07 19:42 47.28773 -58.60039 37825 ft 406 kts 240°
2026-05-07 19:42 47.26016 -58.67294 37824 ft 405 kts 240°
2026-05-07 19:43 47.23255 -58.74541 37810 ft 405 kts 240°
2026-05-07 19:43 47.20499 -58.81752 37810 ft 405 kts 240°
2026-05-07 19:44 47.17739 -58.88957 37801 ft 405 kts 240°
2026-05-07 19:44 47.14960 -58.96193 37797 ft 405 kts 240°
2026-05-07 19:45 47.12192 -59.03380 37796 ft 405 kts 240°
2026-05-07 19:45 47.09427 -59.10538 37788 ft 405 kts 240°
2026-05-07 19:46 47.06646 -59.17722 37788 ft 405 kts 240°
2026-05-07 19:46 47.03863 -59.24890 37789 ft 405 kts 240°
2026-05-07 19:47 47.01065 -59.32078 37783 ft 404 kts 240°
2026-05-07 19:47 46.98298 -59.39168 37785 ft 404 kts 240°
2026-05-07 19:48 46.95500 -59.46317 37781 ft 404 kts 240°
2026-05-07 19:48 46.92701 -59.53452 37778 ft 403 kts 240°
2026-05-07 19:49 46.89909 -59.60549 37777 ft 403 kts 240°
2026-05-07 19:49 46.87113 -59.67639 37793 ft 406 kts 240°
2026-05-07 19:50 46.84282 -59.74797 37807 ft 406 kts 240°
2026-05-07 19:50 46.81456 -59.81927 37792 ft 404 kts 240°
2026-05-07 19:51 46.78640 -59.89012 37783 ft 403 kts 240°
2026-05-07 19:51 46.75827 -59.96071 37768 ft 401 kts 239°
2026-05-07 19:52 46.73025 -60.03084 37751 ft 400 kts 239°
2026-05-07 19:52 46.70226 -60.10069 37751 ft 398 kts 239°
2026-05-07 19:53 46.67434 -60.17022 37725 ft 396 kts 239°
2026-05-07 19:53 46.64650 -60.23934 37711 ft 395 kts 239°
2026-05-07 19:54 46.61877 -60.30805 37711 ft 394 kts 239°
2026-05-07 19:54 46.59086 -60.37701 37743 ft 395 kts 239°
2026-05-07 19:55 46.56281 -60.44615 37733 ft 396 kts 239°
2026-05-07 19:55 46.53490 -60.51476 37732 ft 396 kts 239°
2026-05-07 19:56 46.50683 -60.58361 37712 ft 396 kts 239°
2026-05-07 19:56 46.47874 -60.65234 37707 ft 395 kts 239°
2026-05-07 19:57 46.45045 -60.72138 37700 ft 395 kts 239°
2026-05-07 19:57 46.42253 -60.78933 37695 ft 395 kts 239°
2026-05-07 19:58 46.39436 -60.85774 37693 ft 395 kts 239°
2026-05-07 19:58 46.36616 -60.92603 37694 ft 395 kts 239°
2026-05-07 19:59 46.33794 -60.99422 37696 ft 395 kts 239°
2026-05-07 19:59 46.30966 -61.06239 37689 ft 395 kts 239°
2026-05-07 20:00 46.28133 -61.13051 37694 ft 395 kts 239°
2026-05-07 20:00 46.25299 -61.19848 37693 ft 395 kts 239°
2026-05-07 20:01 46.22479 -61.26594 37698 ft 395 kts 239°
2026-05-07 20:01 46.19635 -61.33385 37700 ft 396 kts 239°
2026-05-07 20:02 46.16785 -61.40168 37702 ft 395 kts 239°
2026-05-07 20:02 46.13939 -61.46929 37696 ft 395 kts 239°
2026-05-07 20:03 46.11083 -61.53697 37698 ft 395 kts 239°
2026-05-07 20:03 46.08231 -61.60436 37695 ft 393 kts 239°
2026-05-07 20:04 46.05385 -61.67146 37685 ft 392 kts 239°
2026-05-07 20:04 46.02543 -61.73832 37673 ft 391 kts 239°
2026-05-07 20:05 45.99708 -61.80485 37667 ft 390 kts 239°
2026-05-07 20:05 45.96889 -61.87084 37666 ft 389 kts 239°
2026-05-07 20:06 45.94050 -61.93714 37661 ft 389 kts 239°
2026-05-07 20:06 45.91209 -62.00335 37642 ft 389 kts 239°
2026-05-07 20:07 45.88367 -62.06942 37651 ft 389 kts 239°
2026-05-07 20:07 45.85523 -62.13537 37640 ft 389 kts 239°
2026-05-07 20:08 45.82673 -62.20130 37643 ft 389 kts 239°
2026-05-07 20:08 45.79839 -62.26671 37626 ft 389 kts 239°
2026-05-07 20:09 45.76981 -62.33253 37627 ft 389 kts 239°
2026-05-07 20:10 45.72695 -62.43093 37640 ft 389 kts 239°
2026-05-07 20:10 45.69827 -62.49659 37632 ft 389 kts 239°
2026-05-07 20:11 45.66957 -62.56215 37641 ft 390 kts 239°
2026-05-07 20:11 45.64077 -62.62776 37645 ft 390 kts 239°
2026-05-07 20:12 45.61192 -62.69336 37651 ft 389 kts 239°
2026-05-07 20:12 45.58307 -62.75878 37644 ft 389 kts 239°
2026-05-07 20:13 45.55420 -62.82411 37653 ft 389 kts 239°
2026-05-07 20:13 45.52533 -62.88928 37655 ft 389 kts 239°
2026-05-07 20:14 45.49638 -62.95450 37658 ft 388 kts 239°
2026-05-07 20:14 45.46749 -63.01941 37658 ft 388 kts 239°
2026-05-07 20:15 45.43854 -63.08432 37664 ft 388 kts 239°
2026-05-07 20:15 45.40959 -63.14909 37663 ft 387 kts 239°
2026-05-07 20:16 45.38080 -63.21333 37664 ft 387 kts 239°
2026-05-07 20:16 45.35187 -63.27776 37672 ft 386 kts 239°
2026-05-07 20:17 45.32291 -63.34211 37668 ft 386 kts 239°
2026-05-07 20:17 45.29396 -63.40627 37668 ft 385 kts 239°
2026-05-07 20:18 45.26502 -63.47028 37663 ft 385 kts 239°
2026-05-07 20:18 45.23606 -63.53418 37669 ft 384 kts 239°
2026-05-07 20:19 45.20708 -63.59800 37667 ft 384 kts 239°
2026-05-07 20:19 45.17814 -63.66157 37678 ft 384 kts 239°
2026-05-07 20:20 45.14935 -63.72468 37675 ft 383 kts 239°
2026-05-07 20:20 45.12038 -63.78802 37673 ft 383 kts 239°
2026-05-07 20:21 45.09140 -63.85127 37665 ft 382 kts 239°
2026-05-07 20:21 45.06245 -63.91430 37663 ft 382 kts 239°
2026-05-07 20:22 45.03350 -63.97720 37666 ft 382 kts 238°
2026-05-07 20:22 45.00464 -64.03976 37683 ft 381 kts 238°
2026-05-07 20:23 44.97603 -64.10164 37685 ft 381 kts 238°
2026-05-07 20:23 44.94711 -64.16407 37680 ft 380 kts 238°
2026-05-07 20:24 44.91813 -64.22648 37663 ft 379 kts 238°
2026-05-07 20:24 44.88924 -64.28855 37671 ft 379 kts 238°
2026-05-07 20:25 44.86032 -64.35057 37675 ft 378 kts 238°
2026-05-07 20:25 44.83148 -64.41228 37682 ft 377 kts 238°
2026-05-07 20:26 44.80256 -64.47403 37677 ft 377 kts 238°
2026-05-07 20:26 44.77373 -64.53547 37683 ft 376 kts 238°
2026-05-07 20:27 44.74975 -64.58645 37684 ft 376 kts 238°
2026-05-07 20:27 44.72078 -64.64792 37687 ft 375 kts 238°
2026-05-07 20:28 44.69198 -64.70892 37674 ft 374 kts 238°
2026-05-07 20:28 44.66319 -64.76975 37687 ft 374 kts 238°
2026-05-07 20:29 44.63442 -64.83043 37680 ft 373 kts 238°
2026-05-07 20:29 44.60604 -64.89014 37695 ft 372 kts 238°
2026-05-07 20:30 44.57930 -64.94630 37691 ft 372 kts 238°
2026-05-07 20:30 44.55012 -65.00745 37692 ft 371 kts 238°
2026-05-07 20:31 44.52153 -65.06726 37701 ft 371 kts 238°
2026-05-07 20:31 44.49282 -65.12717 37704 ft 370 kts 238°
2026-05-07 20:32 44.46410 -65.18698 37707 ft 370 kts 238°
2026-05-07 20:32 44.43538 -65.24669 37713 ft 369 kts 238°
2026-05-07 20:33 44.40665 -65.30629 37708 ft 369 kts 238°
2026-05-07 20:33 44.37796 -65.36567 37710 ft 368 kts 238°
2026-05-07 20:34 44.34931 -65.42486 37711 ft 367 kts 238°
2026-05-07 20:34 44.32064 -65.48394 37712 ft 367 kts 238°
2026-05-07 20:35 44.29218 -65.54251 37711 ft 366 kts 238°
2026-05-07 20:35 44.26357 -65.60125 37717 ft 366 kts 238°
2026-05-07 20:36 44.23489 -65.66000 37716 ft 366 kts 238°
2026-05-07 20:36 44.21196 -65.70691 37715 ft 366 kts 238°
2026-05-07 20:37 44.19315 -65.74532 37709 ft 366 kts 237°
2026-05-07 20:37 44.16441 -65.80392 37712 ft 365 kts 237°
2026-05-07 20:38 44.13567 -65.86239 37708 ft 365 kts 237°
2026-05-07 20:38 44.10721 -65.92019 37723 ft 365 kts 237°
2026-05-07 20:39 44.07852 -65.97834 37725 ft 364 kts 237°
2026-05-07 20:39 44.04984 -66.03633 37730 ft 364 kts 237°
2026-05-07 20:40 44.02116 -66.09424 37736 ft 363 kts 237°
2026-05-07 20:40 43.99239 -66.15219 37735 ft 363 kts 237°
2026-05-07 20:41 43.96393 -66.20942 37734 ft 362 kts 237°
2026-05-07 20:41 43.93529 -66.26688 37734 ft 362 kts 237°
2026-05-07 20:42 43.90666 -66.32421 37738 ft 361 kts 237°
2026-05-07 20:42 43.87803 -66.38146 37743 ft 361 kts 237°
2026-05-07 20:43 43.84942 -66.43860 37740 ft 360 kts 237°
2026-05-07 20:43 43.82083 -66.49560 37729 ft 360 kts 237°
2026-05-07 20:44 43.79223 -66.55251 37732 ft 360 kts 237°
2026-05-07 20:44 43.76367 -66.60925 37736 ft 359 kts 237°
2026-05-07 20:45 43.73502 -66.66602 37733 ft 359 kts 237°
2026-05-07 20:45 43.70666 -66.72214 37739 ft 358 kts 237°
2026-05-07 20:46 43.67810 -66.77854 37739 ft 358 kts 237°
2026-05-07 20:46 43.64949 -66.83494 37741 ft 358 kts 237°
2026-05-07 20:47 43.62089 -66.89119 37742 ft 357 kts 237°
2026-05-07 20:47 43.59230 -66.94732 37745 ft 357 kts 237°
2026-05-07 20:48 43.56426 -67.00339 37738 ft 356 kts 241°
2026-05-07 20:48 43.54532 -67.06619 37738 ft 356 kts 248°
2026-05-07 20:49 43.52823 -67.13053 37739 ft 356 kts 247°
2026-05-07 20:49 43.51063 -67.19442 37742 ft 356 kts 247°
2026-05-07 20:50 43.49277 -67.25812 37741 ft 357 kts 247°
2026-05-07 20:50 43.47480 -67.32189 37738 ft 357 kts 247°
2026-05-07 20:51 43.45678 -67.38572 37741 ft 357 kts 247°
2026-05-07 20:51 43.43872 -67.44949 37745 ft 358 kts 246°
2026-05-07 20:52 43.42066 -67.51312 37740 ft 358 kts 246°
2026-05-07 20:52 43.40262 -67.57653 37743 ft 359 kts 246°
2026-05-07 20:53 43.38438 -67.64047 37755 ft 359 kts 246°
2026-05-07 20:53 43.36611 -67.70435 37757 ft 359 kts 246°
2026-05-07 20:54 43.34779 -67.76825 37761 ft 360 kts 246°
2026-05-07 20:54 43.32939 -67.83227 37766 ft 360 kts 246°
2026-05-07 20:55 43.31094 -67.89629 37769 ft 360 kts 246°
2026-05-07 20:55 43.29247 -67.96023 37760 ft 360 kts 246°
2026-05-07 20:56 43.27400 -68.02401 37745 ft 356 kts 246°
2026-05-07 20:56 43.26498 -68.05514 37411 ft 350 kts 246°
2026-05-07 20:56 43.25611 -68.08567 36843 ft 346 kts 246°
2026-05-07 20:56 43.24722 -68.11623 36218 ft 344 kts 246°
2026-05-07 20:57 43.23836 -68.14665 35577 ft 342 kts 246°
2026-05-07 20:57 43.22958 -68.17674 34923 ft 340 kts 246°
2026-05-07 20:57 43.22081 -68.20677 34271 ft 338 kts 246°
2026-05-07 20:57 43.21209 -68.23662 33661 ft 334 kts 246°
2026-05-07 20:58 43.20352 -68.26591 32967 ft 330 kts 246°
2026-05-07 20:58 43.19500 -68.29499 32306 ft 327 kts 246°
2026-05-07 20:58 43.18658 -68.32373 31793 ft 322 kts 246°
2026-05-07 20:58 43.17826 -68.35208 31374 ft 319 kts 246°
2026-05-07 20:59 43.16995 -68.38034 30955 ft 319 kts 246°
2026-05-07 20:59 43.16168 -68.40842 30548 ft 318 kts 245°
2026-05-07 20:59 43.15340 -68.43653 30145 ft 317 kts 245°
2026-05-07 20:59 43.14517 -68.46442 29727 ft 315 kts 245°
2026-05-07 21:00 43.13700 -68.49210 29254 ft 313 kts 245°
2026-05-07 21:00 43.12881 -68.51977 28772 ft 312 kts 245°
2026-05-07 21:00 43.12082 -68.54678 28336 ft 311 kts 245°
2026-05-07 21:00 43.11268 -68.57422 27890 ft 310 kts 246°
2026-05-07 21:01 43.10461 -68.60144 27442 ft 309 kts 246°
2026-05-07 21:01 43.09652 -68.62871 26999 ft 308 kts 246°
2026-05-07 21:01 43.08846 -68.65581 26565 ft 307 kts 246°
2026-05-07 21:01 43.08043 -68.68281 26140 ft 307 kts 246°
2026-05-07 21:02 43.07239 -68.70983 25724 ft 306 kts 246°
2026-05-07 21:02 43.06436 -68.73676 25310 ft 305 kts 246°
2026-05-07 21:02 43.05635 -68.76361 24911 ft 305 kts 246°
2026-05-07 21:02 43.04833 -68.79045 24511 ft 304 kts 246°
2026-05-07 21:03 43.04033 -68.81718 24118 ft 304 kts 246°
2026-05-07 21:03 43.03232 -68.84395 23721 ft 303 kts 246°
2026-05-07 21:03 43.02436 -68.87052 23330 ft 302 kts 246°
2026-05-07 21:03 43.01639 -68.89710 22871 ft 302 kts 246°
2026-05-07 21:04 43.00838 -68.92378 22419 ft 303 kts 246°
2026-05-07 21:04 43.00039 -68.95037 21974 ft 303 kts 246°
2026-05-07 21:04 42.99237 -68.97705 21529 ft 304 kts 246°
2026-05-07 21:04 42.98433 -69.00375 21091 ft 304 kts 246°
2026-05-07 21:05 42.97635 -69.03019 20656 ft 304 kts 246°
2026-05-07 21:05 42.96820 -69.05721 20226 ft 305 kts 246°
2026-05-07 21:05 42.96021 -69.08366 19816 ft 305 kts 246°
2026-05-07 21:05 42.95210 -69.11046 19407 ft 306 kts 246°
2026-05-07 21:06 42.94393 -69.13745 18999 ft 307 kts 246°
2026-05-07 21:06 42.93579 -69.16430 18599 ft 307 kts 246°
2026-05-07 21:06 42.92758 -69.19137 18202 ft 308 kts 246°
2026-05-07 21:06 42.91937 -69.21842 17770 ft 308 kts 246°
2026-05-07 21:07 42.91120 -69.24526 17316 ft 306 kts 246°
2026-05-07 21:07 42.90307 -69.27196 16870 ft 304 kts 247°
2026-05-07 21:07 42.89494 -69.29864 16418 ft 303 kts 247°
2026-05-07 21:07 42.88691 -69.32498 15999 ft 301 kts 247°
2026-05-07 21:08 42.87885 -69.35136 15576 ft 299 kts 247°
2026-05-07 21:08 42.87088 -69.37744 15148 ft 298 kts 247°
2026-05-07 21:08 42.86290 -69.40352 14722 ft 297 kts 248°
2026-05-07 21:08 42.85499 -69.42935 14317 ft 295 kts 248°
2026-05-07 21:09 42.84710 -69.45510 13922 ft 294 kts 248°
2026-05-07 21:09 42.83924 -69.48073 13528 ft 292 kts 248°
2026-05-07 21:09 42.83139 -69.50628 13119 ft 292 kts 248°
2026-05-07 21:09 42.82356 -69.53178 13007 ft 292 kts 248°
2026-05-07 21:10 42.81569 -69.55737 12997 ft 292 kts 248°
2026-05-07 21:10 42.80791 -69.58263 13000 ft 292 kts 248°
2026-05-07 21:10 42.80005 -69.60813 12998 ft 292 kts 248°
2026-05-07 21:10 42.79216 -69.63371 13000 ft 292 kts 248°
2026-05-07 21:11 42.78429 -69.65921 12999 ft 292 kts 248°
2026-05-07 21:11 42.77640 -69.68472 12998 ft 292 kts 248°
2026-05-07 21:11 42.76068 -69.73545 12388 ft 291 kts 249°
2026-05-07 21:12 42.75283 -69.76076 11727 ft 292 kts 249°
2026-05-07 21:12 42.74530 -69.78499 11086 ft 293 kts 249°
2026-05-07 21:12 42.73732 -69.81065 10410 ft 295 kts 250°
2026-05-07 21:12 42.72946 -69.83592 10166 ft 283 kts 250°
2026-05-07 21:13 42.72198 -69.85987 10055 ft 269 kts 250°
2026-05-07 21:13 42.71717 -69.87525 9975 ft 260 kts 250°
2026-05-07 21:13 42.71025 -69.89743 9781 ft 251 kts 250°
2026-05-07 21:13 42.70346 -69.91925 9315 ft 252 kts 250°
2026-05-07 21:14 42.69668 -69.94109 8855 ft 252 kts 251°
2026-05-07 21:14 42.69051 -69.96090 8441 ft 252 kts 250°
2026-05-07 21:14 42.68364 -69.98295 7993 ft 253 kts 250°
2026-05-07 21:14 42.67676 -70.00490 7551 ft 253 kts 248°
2026-05-07 21:15 42.66699 -70.02498 7145 ft 259 kts 234°
2026-05-07 21:15 42.65537 -70.04339 7028 ft 258 kts 233°
2026-05-07 21:15 42.64347 -70.06186 7007 ft 259 kts 233°
2026-05-07 21:15 42.63138 -70.08000 7005 ft 260 kts 232°
2026-05-07 21:16 42.61907 -70.09799 7006 ft 261 kts 231°
2026-05-07 21:16 42.60908 -70.11239 7004 ft 261 kts 231°
2026-05-07 21:16 42.59668 -70.13019 7009 ft 261 kts 231°
2026-05-07 21:16 42.58421 -70.14804 7010 ft 261 kts 231°
2026-05-07 21:17 42.57222 -70.16522 7009 ft 261 kts 231°
2026-05-07 21:17 42.55975 -70.18308 7010 ft 261 kts 231°
2026-05-07 21:17 42.54724 -70.20098 7010 ft 261 kts 231°
2026-05-07 21:17 42.53466 -70.21898 7010 ft 261 kts 231°
2026-05-07 21:18 42.52214 -70.23688 7012 ft 261 kts 231°
2026-05-07 21:18 42.50965 -70.25473 7010 ft 262 kts 230°
2026-05-07 21:18 42.49713 -70.27261 7010 ft 262 kts 231°
2026-05-07 21:18 42.48521 -70.29112 7014 ft 259 kts 239°
2026-05-07 21:19 42.47732 -70.31263 7014 ft 256 kts 254°
2026-05-07 21:19 42.47328 -70.33615 6873 ft 254 kts 260°
2026-05-07 21:19 42.46956 -70.35923 6655 ft 253 kts 259°
2026-05-07 21:19 42.46563 -70.38252 6215 ft 257 kts 258°
2026-05-07 21:20 42.46157 -70.40609 6041 ft 252 kts 258°
2026-05-07 21:20 42.45766 -70.42862 6000 ft 238 kts 259°
2026-05-07 21:20 42.45449 -70.44985 6003 ft 223 kts 261°
2026-05-07 21:20 42.45146 -70.47001 6007 ft 215 kts 259°
2026-05-07 21:21 42.44825 -70.48845 6008 ft 214 kts 258°
2026-05-07 21:21 42.44477 -70.50820 6011 ft 214 kts 259°
2026-05-07 21:21 42.44131 -70.52794 6003 ft 215 kts 258°
2026-05-07 21:21 42.43785 -70.54757 6013 ft 215 kts 258°
2026-05-07 21:22 42.43440 -70.56716 6001 ft 215 kts 258°
2026-05-07 21:22 42.43093 -70.58687 5964 ft 216 kts 258°
2026-05-07 21:22 42.42748 -70.60651 5770 ft 212 kts 258°
2026-05-07 21:22 42.42405 -70.62600 5481 ft 213 kts 258°
2026-05-07 21:23 42.42062 -70.64534 5192 ft 210 kts 258°
2026-05-07 21:23 42.41724 -70.66454 4886 ft 210 kts 258°
2026-05-07 21:23 42.41392 -70.68338 4602 ft 210 kts 258°
2026-05-07 21:23 42.41048 -70.70287 4311 ft 209 kts 258°
2026-05-07 21:24 42.40714 -70.72182 4029 ft 201 kts 258°
2026-05-07 21:24 42.40409 -70.73899 3765 ft 174 kts 258°
2026-05-07 21:24 42.40137 -70.75503 3531 ft 178 kts 261°
2026-05-07 21:24 42.39847 -70.77142 3274 ft 178 kts 258°
2026-05-07 21:25 42.39552 -70.78743 3044 ft 177 kts 260°
2026-05-07 21:25 42.39272 -70.80391 2803 ft 182 kts 259°
2026-05-07 21:25 42.38971 -70.82040 2546 ft 177 kts 258°
2026-05-07 21:25 42.38694 -70.83635 2317 ft 170 kts 258°
2026-05-07 21:26 42.38426 -70.85161 2076 ft 165 kts 259°
2026-05-07 21:26 42.38206 -70.86664 1828 ft 161 kts 262°
2026-05-07 21:26 42.37998 -70.88130 1625 ft 157 kts 258°
2026-05-07 21:26 42.37719 -70.89536 1455 ft 151 kts 255°
2026-05-07 21:27 42.37426 -70.90863 1285 ft 145 kts 256°
2026-05-07 21:27 42.37184 -70.92171 1082 ft 144 kts 258°
2026-05-07 21:27 42.36939 -70.93507 943 ft 145 kts 257°
2026-05-07 21:27 42.36782 -70.94331 827 ft 143 kts 259°
2026-05-07 21:28 42.36586 -70.95605 597 ft 140 kts 258°
2026-05-07 21:28 42.36359 -70.96828 404 ft 130 kts 258°
2026-05-07 21:28 42.36176 -70.98001 178 ft 127 kts 257°
2026-05-07 21:28 42.35944 -70.99126 49 ft 127 kts 268°
2026-05-07 21:29 42.35732 -71.00407 534 ft 150 kts 257°
2026-05-07 21:29 42.35486 -71.01847 1051 ft 163 kts 256°
2026-05-07 21:29 42.34943 -71.03232 1602 ft 168 kts 239°
2026-05-07 21:29 42.34266 -71.04470 2522 ft 157 kts 228°
2026-05-07 21:30 42.33468 -71.05389 3386 ft 148 kts 226°
2026-05-07 21:30 42.32688 -71.06285 3795 ft 146 kts 221°
2026-05-07 21:30 42.31710 -71.06662 3936 ft 155 kts 176°
2026-05-07 21:30 42.30723 -71.05900 4039 ft 186 kts 133°
2026-05-07 21:31 42.30175 -71.04167 4009 ft 218 kts 95°
2026-05-07 21:31 42.30365 -71.02077 4005 ft 228 kts 75°
2026-05-07 21:31 42.30711 -70.99967 4000 ft 233 kts 76°
2026-05-07 21:31 42.31045 -70.97843 3992 ft 237 kts 76°
2026-05-07 21:32 42.31397 -70.95649 4000 ft 238 kts 76°
2026-05-07 21:32 42.31739 -70.93505 3997 ft 235 kts 76°
2026-05-07 21:32 42.32087 -70.91343 3996 ft 235 kts 76°
2026-05-07 21:32 42.32434 -70.89195 3984 ft 233 kts 76°
2026-05-07 21:33 42.32785 -70.87057 3869 ft 233 kts 76°
2026-05-07 21:33 42.33133 -70.84929 3596 ft 232 kts 76°
2026-05-07 21:33 42.33481 -70.82805 3326 ft 231 kts 76°
2026-05-07 21:33 42.33825 -70.80693 3073 ft 231 kts 76°
2026-05-07 21:34 42.34207 -70.78583 2988 ft 225 kts 68°
2026-05-07 21:34 42.34988 -70.76843 3010 ft 212 kts 40°
2026-05-07 21:34 42.36234 -70.75938 2992 ft 194 kts
2026-05-07 21:34 42.37452 -70.75985 3003 ft 165 kts 348°
2026-05-07 21:35 42.38595 -70.76293 2987 ft 168 kts 333°
2026-05-07 21:35 42.39353 -70.77388 3002 ft 160 kts 293°
2026-05-07 21:35 42.39499 -70.78841 2990 ft 161 kts 269°
2026-05-07 21:35 42.39307 -70.80373 2814 ft 165 kts 259°
2026-05-07 21:36 42.38996 -70.81852 2571 ft 165 kts 258°
2026-05-07 21:36 42.38751 -70.83370 2359 ft 165 kts 259°
2026-05-07 21:36 42.38471 -70.84863 2131 ft 161 kts 258°
2026-05-07 21:36 42.38225 -70.86311 1912 ft 155 kts 258°
2026-05-07 21:37 42.37970 -70.87708 1705 ft 151 kts 258°
2026-05-07 21:37 42.37737 -70.89081 1464 ft 149 kts 258°
2026-05-07 21:37 42.37551 -70.90446 1222 ft 146 kts 258°
2026-05-07 21:37 42.37397 -70.91783 1058 ft 143 kts 254°
2026-05-07 21:38 42.37139 -70.93055 923 ft 138 kts 248°
2026-05-07 21:38 42.36807 -70.94246 778 ft 133 kts 259°
2026-05-07 21:38 42.36598 -70.95446 575 ft 130 kts 261°
2026-05-07 21:38 42.36442 -70.96632 423 ft 124 kts 253°
2026-05-07 21:39 42.36214 -70.97759 256 ft 126 kts 255°
2026-05-07 21:39 42.35992 -70.98894 94 ft 124 kts 263°
2026-05-07 21:39 42.35827 -70.99904 35 ft 92 kts 256°
2026-05-07 21:39 42.35720 -71.00488 30 ft 35 kts 256°
2026-05-07 21:40 42.35676 -71.00735 28 ft 23 kts 256°
2026-05-07 21:40 42.35648 -71.00888 29 ft 12 kts 257°
2026-05-07 21:40 42.35635 -71.00996 29 ft 12 kts 269°
2026-05-07 21:40 42.35652 -71.01128 30 ft 15 kts 292°
2026-05-07 21:41 42.35714 -71.01246 29 ft 16 kts 307°
2026-05-07 21:41 42.35759 -71.01377 31 ft 14 kts 287°
2026-05-07 21:41 42.35784 -71.01491 33 ft 11 kts 291°
2026-05-07 21:41 42.35788 -71.01505 33 ft 11 kts 293°
2026-05-07 21:42 42.35812 -71.01552 32 ft 11 kts 322°
2026-05-07 21:42 42.35879 -71.01556 32 ft 12 kts 24°
2026-05-07 21:42 42.35970 -71.01506 31 ft 17 kts 19°
2026-05-07 21:42 42.36087 -71.01453 31 ft 19 kts 20°
2026-05-07 21:43 42.36205 -71.01395 29 ft 17 kts 20°
2026-05-07 21:43 42.36308 -71.01346 28 ft 14 kts 19°
2026-05-07 21:43 42.36389 -71.01306 28 ft 12 kts 20°
2026-05-07 21:43 42.36500 -71.01253 28 ft 21 kts 20°
2026-05-07 21:44 42.36622 -71.01194 31 ft 16 kts 20°
2026-05-07 21:44 42.36711 -71.01151 31 ft 12 kts 18°
2026-05-07 21:44 42.36730 -71.01144 31 ft 0 kts 11°
2026-05-07 21:45 42.36739 -71.01141 31 ft 4 kts
2026-05-07 21:45 42.36777 -71.01145 30 ft 6 kts 341°
2026-05-07 21:46 42.36818 -71.01181 29 ft 9 kts 317°
2026-05-07 21:46 42.36886 -71.01272 29 ft 14 kts 315°
2026-05-07 21:46 42.36939 -71.01344 30 ft 9 kts 315°
2026-05-07 21:46 42.36972 -71.01388 30 ft 4 kts 315°
2026-05-07 21:47 42.37001 -71.01427 30 ft 8 kts 315°
2026-05-07 21:47 42.37057 -71.01502 32 ft 14 kts 315°
2026-05-07 21:47 42.37130 -71.01600 34 ft 16 kts 315°
2026-05-07 21:47 42.37218 -71.01718 34 ft 17 kts 315°
2026-05-07 21:48 42.37274 -71.01793 35 ft 6 kts 314°
2026-05-07 21:48 42.37292 -71.01825 35 ft 4 kts 292°
2026-05-07 21:48 42.37291 -71.01879 35 ft 7 kts 239°
2026-05-07 21:48 42.37254 -71.01931 35 ft 9 kts 232°
2026-05-07 21:49 42.37228 -71.02015 34 ft 9 kts 256°
2026-05-07 21:49 42.37213 -71.02093 32 ft 8 kts 250°
2026-05-07 21:49 42.37188 -71.02154 30 ft 7 kts 229°
2026-05-07 21:49 42.37170 -71.02166 30 ft 4 kts 175°
2026-05-07 21:50 42.37142 -71.02141 31 ft 6 kts 124°
2026-05-07 21:50 42.37136 -71.02129 31 ft 0 kts 124°